Darstellungsparameter: Aktuell verwendete Einstellungen:
Skalierung der Graphiken ... ?
xyx+y,   Skalierungsfaktor:      Skalierung: Modus: x, Faktor: 1
Darstellungszeitraum ... ?
Vom - - bis: - -   Zeitraum: 25.03.2020 - 31.03.2020
Min/Max/Avg-Anzeige ... ?
Zeige MMA aktuell
Zeige MMA Monat
Zeige MMA alles
Zeige --A aktuell
Zeige --A Monat
Zeige --A alles
Keine MMA-Anzeige
MMA:
Keine MMA-Graphiken
MMA-Basis: 25.03.2020 - 31.03.2020
Quicknavigation für Darstellung... ?
Tage:      1T, 2T, 3T, 5T -1T -2T -3T -5T +1T +2T +3T +5T
Wochen: 1W, 2W, 3W -1W -2W -3W +1W +2W +3W
Monate: 1M, 3M, 6M -1M -3M -6M +1M +3M +6M
Jahre:    1J, 3J, 5J, 10J -1J -3J -5J -10J +1J +3J +5J +10J
Nutze für die Darstellung ... ?
Originaldaten oder Mittelwerte auf ...
Stundenbasis Tagesbasis Wochenbasis
Monatsbasis Jahresbasis      Datenbasis: Original-Daten
Darstellen als:
Statistik (Auto) Statistik J:M      Darstellung:
Zur Graphik,    zurück zur Übersicht aller Sensoren.
 
Tabellarische Datenbersicht: ?
 
Sensor: Nr:Datum:Temp:Feuchte:
Aussen-T/F 1 25-03-2020 00:00:17 -1.6 C 30 %
2 25-03-2020 00:10:17 -1.6 C 31 %
3 25-03-2020 00:20:17 -1.8 C 32 %
4 25-03-2020 00:30:17 -1.8 C 30 %
5 25-03-2020 00:40:18 -1.9 C 31 %
6 25-03-2020 00:50:17 -1.8 C 32 %
7 25-03-2020 01:00:17 -1.6 C 32 %
8 25-03-2020 01:10:18 -1.3 C 31 %
9 25-03-2020 01:20:17 -1.1 C 30 %
10 25-03-2020 01:30:18 -1.1 C 29 %
11 25-03-2020 01:40:18 -0.9 C 28 %
12 25-03-2020 01:50:17 -1.1 C 28 %
13 25-03-2020 02:00:17 -1.1 C 28 %
14 25-03-2020 02:10:18 -1.3 C 27 %
15 25-03-2020 02:20:18 -1.4 C 29 %
16 25-03-2020 02:30:18 -1.6 C 27 %
17 25-03-2020 02:40:18 -1.5 C 27 %
18 25-03-2020 02:50:18 -1.4 C 27 %
19 25-03-2020 03:00:18 -1.4 C 26 %
20 25-03-2020 03:10:18 -1.4 C 26 %
21 25-03-2020 03:20:17 -1.5 C 27 %
22 25-03-2020 03:30:17 -2.3 C 30 %
23 25-03-2020 03:40:17 -2.6 C 31 %
24 25-03-2020 03:50:17 -2.8 C 32 %
25 25-03-2020 04:00:17 -3.1 C 33 %
Sensor: Nr:Datum:Temp:Feuchte:
Aussen-T/F 26 25-03-2020 04:10:17 -3.2 C 34 %
27 25-03-2020 04:20:17 -3.3 C 34 %
28 25-03-2020 04:30:18 -3.3 C 34 %
29 25-03-2020 04:40:18 -3 C 33 %
30 25-03-2020 04:50:17 -3.2 C 33 %
31 25-03-2020 05:00:18 -3 C 32 %
32 25-03-2020 05:10:18 -2.6 C 32 %
33 25-03-2020 05:20:17 -2.3 C 30 %
34 25-03-2020 05:30:17 -2.5 C 30 %
35 25-03-2020 05:40:17 -3.4 C 33 %
36 25-03-2020 05:50:17 -4 C 35 %
37 25-03-2020 06:00:17 -4.4 C 36 %
38 25-03-2020 06:10:17 -4.2 C 36 %
39 25-03-2020 06:20:17 -4.2 C 36 %
40 25-03-2020 06:30:17 -4.4 C 36 %
41 25-03-2020 06:40:17 -4.3 C 36 %
42 25-03-2020 06:50:17 -4.3 C 36 %
43 25-03-2020 07:00:17 -4.3 C 37 %
44 25-03-2020 07:10:17 -4.3 C 37 %
45 25-03-2020 07:20:17 -4.1 C 37 %
46 25-03-2020 07:30:17 -4 C 37 %
47 25-03-2020 07:40:17 -3.8 C 37 %
48 25-03-2020 07:50:17 -3.2 C 36 %
49 25-03-2020 08:00:17 -2.6 C 35 %
50 25-03-2020 08:10:17 -2 C 32 %
Sensor: Nr:Datum:Temp:Feuchte:
Aussen-T/F 51 25-03-2020 08:20:17 -2.7 C 35 %
52 25-03-2020 08:30:17 -2 C 34 %
53 25-03-2020 08:40:17 -1.9 C 34 %
54 25-03-2020 08:50:17 -1.6 C 34 %
55 25-03-2020 09:00:17 -1.5 C 34 %
56 25-03-2020 09:10:17 -1.3 C 35 %
57 25-03-2020 09:20:17 -1 C 35 %
58 25-03-2020 09:30:17 -0.2 C 32 %
59 25-03-2020 09:40:18 0.7 C 29 %
60 25-03-2020 09:50:17 2.1 C 20 %
61 25-03-2020 10:00:18 2.8 C 20 %
62 25-03-2020 10:10:18 3.2 C 20 %
63 25-03-2020 10:20:17 3.6 C 20 %
64 25-03-2020 10:30:17 4.1 C 20 %
65 25-03-2020 10:40:17 4.7 C 20 %
66 25-03-2020 10:50:17 5.1 C 20 %
67 25-03-2020 11:00:17 5.3 C 20 %
68 25-03-2020 11:10:17 5.7 C 20 %
69 25-03-2020 11:20:17 7.2 C 20 %
70 25-03-2020 11:30:18 7.7 C 20 %
71 25-03-2020 11:40:18 7.3 C 20 %
72 25-03-2020 11:50:17 6.8 C 20 %
73 25-03-2020 12:00:17 7.8 C 20 %
74 25-03-2020 12:10:17 8.3 C 20 %
75 25-03-2020 12:20:17 8.4 C 20 %
Sensor: Nr:Datum:Temp:Feuchte:
Aussen-T/F 76 25-03-2020 12:30:17 8.4 C 20 %
77 25-03-2020 12:40:17 8.6 C 20 %
78 25-03-2020 12:50:17 10.3 C 20 %
79 25-03-2020 13:00:17 11.2 C 20 %
80 25-03-2020 13:10:17 12.2 C 20 %
81 25-03-2020 13:20:18 13.8 C 20 %
82 25-03-2020 13:30:18 14.5 C 20 %
83 25-03-2020 13:40:18 12.4 C 20 %
84 25-03-2020 13:50:18 12 C 20 %
85 25-03-2020 14:00:18 11.3 C 20 %
86 25-03-2020 14:10:18 11.1 C 20 %
87 25-03-2020 14:20:17 13.2 C 20 %
88 25-03-2020 14:30:17 13.5 C 20 %
89 25-03-2020 14:40:17 12.7 C 20 %
90 25-03-2020 14:50:17 13.5 C 20 %
91 25-03-2020 15:00:17 13.8 C 20 %
92 25-03-2020 15:10:17 14.1 C 20 %
93 25-03-2020 15:20:18 14.9 C 20 %
94 25-03-2020 15:30:18 14.4 C 20 %
95 25-03-2020 15:40:18 14.4 C 20 %
96 25-03-2020 15:50:17 15 C 20 %
97 25-03-2020 16:00:18 15.3 C 20 %
98 25-03-2020 16:10:18 14.5 C 20 %
99 25-03-2020 16:20:17 15.7 C 20 %
100 25-03-2020 16:30:17 13.8 C 20 %
Sensor: Nr:Datum:Temp:Feuchte:
Aussen-T/F 101 25-03-2020 16:40:17 12.9 C 20 %
102 25-03-2020 16:50:18 12.2 C 20 %
103 25-03-2020 17:00:18 11.9 C 20 %
104 25-03-2020 17:10:18 11.5 C 20 %
105 25-03-2020 17:20:17 11.1 C 20 %
106 25-03-2020 17:30:17 11 C 20 %
107 25-03-2020 17:40:17 10.7 C 20 %
108 25-03-2020 17:50:17 10.5 C 20 %
109 25-03-2020 18:00:18 10.5 C 20 %
110 25-03-2020 18:10:18 10.1 C 20 %
111 25-03-2020 18:20:17 9.6 C 20 %
112 25-03-2020 18:30:18 8.8 C 20 %
113 25-03-2020 18:40:18 7.7 C 20 %
114 25-03-2020 18:50:18 7 C 20 %
115 25-03-2020 19:00:18 6.3 C 20 %
116 25-03-2020 19:10:18 6.1 C 20 %
117 25-03-2020 19:20:17 5.4 C 20 %
118 25-03-2020 19:30:18 5.8 C 20 %
119 25-03-2020 19:40:18 5.1 C 20 %
120 25-03-2020 19:50:17 4.6 C 20 %
121 25-03-2020 20:00:17 4.5 C 20 %
122 25-03-2020 20:10:17 4.1 C 20 %
123 25-03-2020 20:20:17 4 C 20 %
124 25-03-2020 20:30:18 4.7 C 20 %
125 25-03-2020 20:40:18 4.3 C 20 %
Sensor: Nr:Datum:Temp:Feuchte:
Aussen-T/F 126 25-03-2020 20:50:17 3.8 C 20 %
127 25-03-2020 21:00:18 4.6 C 20 %
128 25-03-2020 21:10:18 4.6 C 20 %
129 25-03-2020 21:20:17 4.3 C 20 %
130 25-03-2020 21:30:17 4.3 C 20 %
131 25-03-2020 21:40:17 4 C 20 %
132 25-03-2020 21:50:17 3.6 C 20 %
133 25-03-2020 22:00:17 2.8 C 20 %
134 25-03-2020 22:10:17 2.6 C 20 %
135 25-03-2020 22:20:17 2.6 C 20 %
136 25-03-2020 22:30:18 2.1 C 20 %
137 25-03-2020 22:40:18 2.3 C 20 %
138 25-03-2020 22:50:18 2.1 C 20 %
139 25-03-2020 23:00:18 1.7 C 20 %
140 25-03-2020 23:10:18 1.7 C 23 %
141 25-03-2020 23:20:17 1.6 C 23 %
142 25-03-2020 23:30:18 1.5 C 21 %
143 25-03-2020 23:40:18 1.8 C 20 %
144 25-03-2020 23:50:18 1.8 C 20 %
145 26-03-2020 00:00:18 1.4 C 21 %
146 26-03-2020 00:10:18 1.2 C 21 %
147 26-03-2020 00:20:18 1.3 C 21 %
148 26-03-2020 00:30:18 0.9 C 23 %
149 26-03-2020 00:40:18 0.9 C 25 %
150 26-03-2020 00:50:18 1 C 23 %
Sensor: Nr:Datum:Temp:Feuchte:
Aussen-T/F 151 26-03-2020 01:00:18 0.7 C 25 %
152 26-03-2020 01:10:18 0.4 C 25 %
153 26-03-2020 01:20:17 0.5 C 25 %
154 26-03-2020 01:30:17 0.7 C 25 %
155 26-03-2020 01:40:17 0.7 C 23 %
156 26-03-2020 01:50:17 0.7 C 21 %
157 26-03-2020 02:00:17 0.6 C 23 %
158 26-03-2020 02:10:17 0.7 C 21 %
159 26-03-2020 02:20:17 0.7 C 21 %
160 26-03-2020 02:30:17 0.6 C 21 %
161 26-03-2020 02:40:18 0.4 C 21 %
162 26-03-2020 02:50:17 0.3 C 23 %
163 26-03-2020 03:00:17 0 C 23 %
164 26-03-2020 03:10:18 0.1 C 23 %
165 26-03-2020 03:20:18 0 C 23 %
166 26-03-2020 03:30:18 -0.3 C 25 %
167 26-03-2020 03:40:18 -0.3 C 27 %
168 26-03-2020 03:50:17 -0.4 C 27 %
169 26-03-2020 04:00:17 -0.1 C 26 %
170 26-03-2020 04:10:17 -0.3 C 25 %
171 26-03-2020 04:20:17 -0.3 C 26 %
172 26-03-2020 04:30:18 -0.4 C 26 %
173 26-03-2020 04:40:18 -0.4 C 26 %
174 26-03-2020 04:50:17 -0.5 C 26 %
175 26-03-2020 05:00:18 -0.5 C 27 %
Sensor: Nr:Datum:Temp:Feuchte:
Aussen-T/F 176 26-03-2020 05:10:18 -0.6 C 27 %
177 26-03-2020 05:20:17 -0.6 C 28 %
178 26-03-2020 05:30:17 -0.7 C 28 %
179 26-03-2020 05:40:18 -0.5 C 28 %
180 26-03-2020 05:50:17 -0.6 C 28 %
181 26-03-2020 06:00:18 -0.7 C 29 %
182 26-03-2020 06:10:18 -0.8 C 28 %
183 26-03-2020 06:20:18 -0.9 C 28 %
184 26-03-2020 06:30:18 -1 C 28 %
185 26-03-2020 06:40:18 -0.9 C 30 %
186 26-03-2020 06:50:18 -1.1 C 30 %
187 26-03-2020 07:00:18 -0.8 C 30 %
188 26-03-2020 07:10:18 -1.1 C 30 %
189 26-03-2020 07:20:18 -0.6 C 30 %
190 26-03-2020 07:30:18 -0.4 C 30 %
191 26-03-2020 07:40:18 0.2 C 27 %
192 26-03-2020 07:50:17 0.5 C 25 %
193 26-03-2020 08:00:18 0.3 C 28 %
194 26-03-2020 08:10:18 0.4 C 28 %
195 26-03-2020 08:20:18 0.7 C 26 %
196 26-03-2020 08:30:18 1.4 C 21 %
197 26-03-2020 08:40:18 1.7 C 21 %
198 26-03-2020 08:50:17 2.2 C 20 %
199 26-03-2020 09:00:18 2.3 C 20 %
200 26-03-2020 09:10:18 2.3 C 20 %
Sensor: Nr:Datum:Temp:Feuchte:
Aussen-T/F 201 26-03-2020 09:20:18 2.7 C 20 %
202 26-03-2020 09:30:18 3.2 C 20 %
203 26-03-2020 09:40:18 3.5 C 20 %
204 26-03-2020 09:50:18 4.1 C 20 %
205 26-03-2020 10:00:18 4.4 C 20 %
206 26-03-2020 10:10:18 4.9 C 20 %
207 26-03-2020 10:20:18 5 C 20 %
208 26-03-2020 10:30:18 5.4 C 20 %
209 26-03-2020 10:40:18 5.9 C 20 %
210 26-03-2020 10:50:17 6 C 20 %
211 26-03-2020 11:00:18 6.6 C 20 %
212 26-03-2020 11:10:18 6.9 C 20 %
213 26-03-2020 11:20:18 7.3 C 20 %
214 26-03-2020 11:30:18 8.5 C 20 %
215 26-03-2020 11:40:18 8.3 C 20 %
216 26-03-2020 11:50:18 7.3 C 20 %
217 26-03-2020 12:00:18 8 C 20 %
218 26-03-2020 12:10:18 9.1 C 20 %
219 26-03-2020 12:20:17 9.6 C 20 %
220 26-03-2020 12:30:17 9.6 C 20 %
221 26-03-2020 12:40:17 9.6 C 20 %
222 26-03-2020 12:50:17 9.7 C 20 %
223 26-03-2020 13:00:17 10.4 C 20 %
224 26-03-2020 13:10:17 10.8 C 20 %
225 26-03-2020 13:20:18 11.5 C 20 %
Sensor: Nr:Datum:Temp:Feuchte:
Aussen-T/F 226 26-03-2020 13:30:18 11.5 C 20 %
227 26-03-2020 13:40:18 12.1 C 20 %
228 26-03-2020 13:50:18 13 C 20 %
229 26-03-2020 14:00:18 12 C 20 %
230 26-03-2020 14:10:18 12.2 C 20 %
231 26-03-2020 14:20:18 11.9 C 20 %
232 26-03-2020 14:30:18 14.3 C 20 %
233 26-03-2020 14:40:18 14.2 C 20 %
234 26-03-2020 14:50:17 14 C 20 %
235 26-03-2020 15:00:17 15.3 C 20 %
236 26-03-2020 15:10:18 14.2 C 20 %
237 26-03-2020 15:20:18 14 C 20 %
238 26-03-2020 15:30:18 15.6 C 20 %
239 26-03-2020 15:40:18 15.6 C 20 %
240 26-03-2020 15:50:18 16.5 C 20 %
241 26-03-2020 16:00:18 15.6 C 20 %
242 26-03-2020 16:10:18 15.3 C 20 %
243 26-03-2020 16:20:18 12.5 C 20 %
244 26-03-2020 16:30:18 12.3 C 20 %
245 26-03-2020 16:40:18 13.9 C 20 %
246 26-03-2020 16:50:18 12.8 C 20 %
247 26-03-2020 17:00:18 11.4 C 20 %
248 26-03-2020 17:10:18 11 C 20 %
249 26-03-2020 17:20:17 10.9 C 20 %
250 26-03-2020 17:30:17 11 C 20 %
Sensor: Nr:Datum:Temp:Feuchte:
Aussen-T/F 251 26-03-2020 17:40:17 11.1 C 20 %
252 26-03-2020 17:50:17 10.7 C 20 %
253 26-03-2020 18:00:17 10.5 C 20 %
254 26-03-2020 18:10:17 10.3 C 20 %
255 26-03-2020 18:20:18 10.1 C 20 %
256 26-03-2020 18:30:18 9.8 C 20 %
257 26-03-2020 18:40:18 9.4 C 20 %
258 26-03-2020 18:50:17 8.6 C 20 %
259 26-03-2020 19:00:17 8 C 20 %
260 26-03-2020 19:10:17 7.4 C 20 %
261 26-03-2020 19:20:17 6.9 C 21 %
262 26-03-2020 19:30:17 6.7 C 21 %
263 26-03-2020 19:40:17 6.4 C 21 %
264 26-03-2020 19:50:17 6.5 C 21 %
265 26-03-2020 20:00:17 6.2 C 23 %
266 26-03-2020 20:10:18 6 C 23 %
267 26-03-2020 20:20:18 5.7 C 25 %
268 26-03-2020 20:30:17 5.4 C 26 %
269 26-03-2020 20:40:17 4.9 C 28 %
270 26-03-2020 20:50:17 4.9 C 28 %
271 26-03-2020 21:00:17 4.7 C 29 %
272 26-03-2020 21:10:17 4.5 C 29 %
273 26-03-2020 21:20:17 4.5 C 30 %
274 26-03-2020 21:30:18 4.1 C 30 %
275 26-03-2020 21:40:18 4.6 C 30 %
Sensor: Nr:Datum:Temp:Feuchte:
Aussen-T/F 276 26-03-2020 21:50:18 4.6 C 30 %
277 26-03-2020 22:00:18 4.6 C 30 %
278 26-03-2020 22:10:18 4.6 C 30 %
279 26-03-2020 22:20:17 4.5 C 30 %
280 26-03-2020 22:30:17 4.5 C 30 %
281 26-03-2020 22:40:17 4.5 C 30 %
282 26-03-2020 22:50:17 4.4 C 30 %
283 26-03-2020 23:00:18 4.5 C 30 %
284 26-03-2020 23:10:18 4.2 C 30 %
285 26-03-2020 23:20:17 4.2 C 30 %
286 26-03-2020 23:30:18 3.9 C 31 %
287 26-03-2020 23:40:18 4 C 30 %
288 26-03-2020 23:50:18 3.9 C 31 %
289 27-03-2020 00:00:18 4 C 30 %
290 27-03-2020 00:10:18 3.9 C 31 %
291 27-03-2020 00:20:17 4 C 30 %
292 27-03-2020 00:30:17 4 C 30 %
293 27-03-2020 00:40:17 3.7 C 32 %
294 27-03-2020 00:50:18 3.6 C 32 %
295 27-03-2020 01:00:18 2.7 C 35 %
296 27-03-2020 01:10:18 2.5 C 36 %
297 27-03-2020 01:20:17 3 C 35 %
298 27-03-2020 01:30:18 3.1 C 35 %
299 27-03-2020 01:40:18 2.7 C 36 %
300 27-03-2020 01:50:18 3 C 35 %
Sensor: Nr:Datum:Temp:Feuchte:
Aussen-T/F 301 27-03-2020 02:00:18 2.9 C 35 %
302 27-03-2020 02:10:18 2.8 C 35 %
303 27-03-2020 02:20:17 2.7 C 35 %
304 27-03-2020 02:30:17 2.5 C 36 %
305 27-03-2020 02:40:17 2.5 C 36 %
306 27-03-2020 02:50:17 2.6 C 35 %
307 27-03-2020 03:00:17 2.6 C 35 %
308 27-03-2020 03:10:17 2.2 C 36 %
309 27-03-2020 03:20:17 2.5 C 35 %
310 27-03-2020 03:30:17 2.4 C 35 %
311 27-03-2020 03:40:17 2.6 C 35 %
312 27-03-2020 03:50:17 2.4 C 36 %
313 27-03-2020 04:00:18 2.4 C 35 %
314 27-03-2020 04:10:18 2.4 C 35 %
315 27-03-2020 04:20:18 1.4 C 38 %
316 27-03-2020 04:30:18 1.3 C 38 %
317 27-03-2020 04:40:18 1.6 C 38 %
318 27-03-2020 04:50:17 1.8 C 37 %
319 27-03-2020 05:00:18 1.5 C 38 %
320 27-03-2020 05:10:18 0.7 C 40 %
321 27-03-2020 05:20:18 0.4 C 40 %
322 27-03-2020 05:30:18 0 C 41 %
323 27-03-2020 05:40:18 0 C 42 %
324 27-03-2020 05:50:18 -0.1 C 42 %
325 27-03-2020 06:00:18 -0.5 C 42 %
Sensor: Nr:Datum:Temp:Feuchte:
Aussen-T/F 326 27-03-2020 06:10:18 -0.6 C 43 %
327 27-03-2020 06:20:18 -0.4 C 43 %
328 27-03-2020 06:30:18 -0.4 C 43 %
329 27-03-2020 06:40:18 -0.3 C 43 %
330 27-03-2020 06:50:17 -0.3 C 43 %
331 27-03-2020 07:00:18 -0.2 C 43 %
332 27-03-2020 07:10:18 -0.1 C 43 %
333 27-03-2020 07:20:18 0.1 C 43 %
334 27-03-2020 07:30:18 0.3 C 43 %
335 27-03-2020 07:40:18 0.8 C 43 %
336 27-03-2020 07:50:17 1.2 C 41 %
337 27-03-2020 08:00:17 1.1 C 41 %
338 27-03-2020 08:10:18 1.9 C 40 %
339 27-03-2020 08:20:18 1.7 C 40 %
340 27-03-2020 08:30:18 1.6 C 41 %
341 27-03-2020 08:40:18 1.9 C 41 %
342 27-03-2020 08:50:17 2.6 C 39 %
343 27-03-2020 09:00:18 3 C 38 %
344 27-03-2020 09:10:18 3.3 C 37 %
345 27-03-2020 09:20:17 3.6 C 37 %
346 27-03-2020 09:30:18 4.1 C 36 %
347 27-03-2020 09:40:18 4.5 C 35 %
348 27-03-2020 09:50:18 5.3 C 35 %
349 27-03-2020 10:00:18 5.8 C 34 %
350 27-03-2020 10:10:18 6.5 C 32 %
Sensor: Nr:Datum:Temp:Feuchte:
Aussen-T/F 351 27-03-2020 10:20:17 7.6 C 30 %
352 27-03-2020 10:30:17 8.1 C 28 %
353 27-03-2020 10:40:17 9.1 C 25 %
354 27-03-2020 10:50:17 9.3 C 25 %
355 27-03-2020 11:00:17 10.2 C 20 %
356 27-03-2020 11:10:17 11 C 20 %
357 27-03-2020 11:20:17 12.4 C 20 %
358 27-03-2020 11:30:17 14.5 C 20 %
359 27-03-2020 11:40:17 14.2 C 20 %
360 27-03-2020 11:50:17 12.5 C 20 %
361 27-03-2020 12:00:17 13.4 C 20 %
362 27-03-2020 12:10:17 13.7 C 20 %
363 27-03-2020 12:20:17 14.4 C 20 %
364 27-03-2020 12:30:17 14.1 C 20 %
365 27-03-2020 12:40:18 14.2 C 20 %
366 27-03-2020 12:50:18 14.6 C 20 %
367 27-03-2020 13:00:18 16.6 C 20 %
368 27-03-2020 13:10:18 15.8 C 20 %
369 27-03-2020 13:20:17 17.6 C 20 %
370 27-03-2020 13:30:18 18.8 C 20 %
371 27-03-2020 13:40:18 16.8 C 20 %
372 27-03-2020 13:50:18 17.3 C 20 %
373 27-03-2020 14:00:18 16.9 C 20 %
374 27-03-2020 14:10:18 17.6 C 20 %
375 27-03-2020 14:20:18 17.7 C 20 %
Sensor: Nr:Datum:Temp:Feuchte:
Aussen-T/F 376 27-03-2020 14:30:17 20.4 C 20 %
377 27-03-2020 14:40:17 18.1 C 20 %
378 27-03-2020 14:50:17 18.4 C 20 %
379 27-03-2020 15:00:17 18.5 C 20 %
380 27-03-2020 15:10:17 18.7 C 20 %
381 27-03-2020 15:20:17 18.9 C 20 %
382 27-03-2020 15:30:18 19.4 C 20 %
383 27-03-2020 15:40:18 18.3 C 20 %
384 27-03-2020 15:50:17 19.5 C 20 %
385 27-03-2020 16:00:17 18.5 C 20 %
386 27-03-2020 16:10:17 18.2 C 20 %
387 27-03-2020 16:20:17 19.2 C 20 %
388 27-03-2020 16:30:17 18.3 C 20 %
389 27-03-2020 16:40:17 18 C 20 %
390 27-03-2020 16:50:17 17 C 20 %
391 27-03-2020 17:00:18 16.4 C 20 %
392 27-03-2020 17:10:18 16.3 C 20 %
393 27-03-2020 17:20:18 16.1 C 20 %
394 27-03-2020 17:30:18 16 C 20 %
395 27-03-2020 17:40:18 15.8 C 20 %
396 27-03-2020 17:50:18 15.7 C 20 %
397 27-03-2020 18:00:17 15.4 C 20 %
398 27-03-2020 18:10:17 15 C 20 %
399 27-03-2020 18:20:17 14.1 C 20 %
400 27-03-2020 18:30:18 13.5 C 20 %
Sensor: Nr:Datum:Temp:Feuchte:
Aussen-T/F 401 27-03-2020 18:40:18 12.9 C 20 %
402 27-03-2020 18:50:18 12.3 C 20 %
403 27-03-2020 19:00:18 11.8 C 20 %
404 27-03-2020 19:10:18 11.5 C 20 %
405 27-03-2020 19:20:17 11.4 C 20 %
406 27-03-2020 19:30:17 10.7 C 20 %
407 27-03-2020 19:40:17 10.7 C 21 %
408 27-03-2020 19:50:17 10.4 C 23 %
409 27-03-2020 20:00:18 10.4 C 22 %
410 27-03-2020 20:10:18 9.2 C 26 %
411 27-03-2020 20:20:17 8.9 C 28 %
412 27-03-2020 20:30:17 8.4 C 30 %
413 27-03-2020 20:40:17 8.1 C 30 %
414 27-03-2020 20:50:18 7.8 C 31 %
415 27-03-2020 21:00:17 7.4 C 31 %
416 27-03-2020 21:10:17 7.3 C 32 %
417 27-03-2020 21:20:17 7.1 C 32 %
418 27-03-2020 21:30:17 7 C 32 %
419 27-03-2020 21:40:17 6.6 C 33 %
420 27-03-2020 21:50:17 6.6 C 34 %
421 27-03-2020 22:00:17 6.4 C 34 %
422 27-03-2020 22:10:17 6.3 C 34 %
423 27-03-2020 22:20:17 6 C 35 %
424 27-03-2020 22:30:18 5.8 C 35 %
425 27-03-2020 22:40:18 5.6 C 35 %
Sensor: Nr:Datum:Temp:Feuchte:
Aussen-T/F 426 27-03-2020 22:50:18 5.5 C 36 %
427 27-03-2020 23:00:18 5.6 C 36 %
428 27-03-2020 23:10:18 5.6 C 36 %
429 27-03-2020 23:20:17 5.3 C 36 %
430 27-03-2020 23:30:17 5.2 C 36 %
431 27-03-2020 23:40:17 5.1 C 36 %
432 27-03-2020 23:50:17 4.8 C 37 %
433 28-03-2020 00:00:17 4.8 C 38 %
434 28-03-2020 00:10:17 4.8 C 39 %
435 28-03-2020 00:20:17 5 C 37 %
436 28-03-2020 00:30:18 4.9 C 38 %
437 28-03-2020 00:40:18 4.7 C 38 %
438 28-03-2020 00:50:17 4.7 C 38 %
439 28-03-2020 01:00:17 4.6 C 38 %
440 28-03-2020 01:10:17 4.4 C 39 %
441 28-03-2020 01:20:17 4.3 C 39 %
442 28-03-2020 01:30:17 4.1 C 39 %
443 28-03-2020 01:40:18 3.9 C 40 %
444 28-03-2020 01:50:17 3.7 C 41 %
445 28-03-2020 02:00:18 3.6 C 41 %
446 28-03-2020 02:10:18 3.3 C 41 %
447 28-03-2020 02:20:18 3.1 C 41 %
448 28-03-2020 02:30:17 3.7 C 42 %
449 28-03-2020 02:40:17 3.7 C 41 %
450 28-03-2020 02:50:18 3.4 C 41 %
Sensor: Nr:Datum:Temp:Feuchte:
Aussen-T/F 451 28-03-2020 03:00:18 3.1 C 41 %
452 28-03-2020 03:10:18 2.9 C 42 %
453 28-03-2020 03:20:17 2.8 C 43 %
454 28-03-2020 03:30:18 2.6 C 43 %
455 28-03-2020 03:40:18 2.1 C 43 %
456 28-03-2020 03:50:17 2.1 C 44 %
457 28-03-2020 04:00:18 2.2 C 44 %
458 28-03-2020 04:10:18 2.1 C 44 %
459 28-03-2020 04:20:18 1.9 C 45 %
460 28-03-2020 04:30:18 1.7 C 45 %
461 28-03-2020 04:40:18 1.8 C 46 %
462 28-03-2020 04:50:17 1.8 C 46 %
463 28-03-2020 05:00:18 1.7 C 45 %
464 28-03-2020 05:10:18 1.6 C 45 %
465 28-03-2020 05:20:17 1.5 C 45 %
466 28-03-2020 05:30:18 1.3 C 46 %
467 28-03-2020 05:40:18 1.2 C 46 %
468 28-03-2020 05:50:18 1.2 C 46 %
469 28-03-2020 06:00:18 1.2 C 46 %
470 28-03-2020 06:10:18 1.3 C 46 %
471 28-03-2020 06:20:17 1.1 C 46 %
472 28-03-2020 06:30:17 1.1 C 46 %
473 28-03-2020 06:40:17 1 C 46 %
474 28-03-2020 06:50:17 1.2 C 47 %
475 28-03-2020 07:00:17 1.5 C 47 %
Sensor: Nr:Datum:Temp:Feuchte:
Aussen-T/F 476 28-03-2020 07:10:17 1.7 C 47 %
477 28-03-2020 07:20:17 1.9 C 47 %
478 28-03-2020 07:30:18 1.9 C 46 %
479 28-03-2020 07:40:18 1.9 C 46 %
480 28-03-2020 07:50:17 2 C 45 %
481 28-03-2020 08:00:17 2.2 C 45 %
482 28-03-2020 08:10:18 2.5 C 45 %
483 28-03-2020 08:20:18 2.8 C 46 %
484 28-03-2020 08:30:17 3.2 C 45 %
485 28-03-2020 08:40:17 3.7 C 44 %
486 28-03-2020 08:50:18 4 C 43 %
487 28-03-2020 09:00:18 4.6 C 43 %
488 28-03-2020 09:10:18 5.1 C 41 %
489 28-03-2020 09:20:17 5.7 C 41 %
490 28-03-2020 09:30:18 6.3 C 40 %
491 28-03-2020 09:40:18 6.9 C 40 %
492 28-03-2020 09:50:18 7.8 C 38 %
493 28-03-2020 10:00:18 8.4 C 37 %
494 28-03-2020 10:10:18 9.5 C 35 %
495 28-03-2020 10:20:17 10.2 C 32 %
496 28-03-2020 10:30:17 10.9 C 31 %
497 28-03-2020 10:40:17 11.6 C 30 %
498 28-03-2020 10:50:18 12.2 C 29 %
499 28-03-2020 11:00:18 13.4 C 26 %
500 28-03-2020 11:10:18 13.6 C 25 %
Sensor: Nr:Datum:Temp:Feuchte:
Aussen-T/F 501 28-03-2020 11:20:17 15.8 C 20 %
502 28-03-2020 11:30:17 16.7 C 20 %
503 28-03-2020 11:40:17 16.4 C 20 %
504 28-03-2020 11:50:18 15.9 C 20 %
505 28-03-2020 12:00:17 16.6 C 20 %
506 28-03-2020 12:10:17 17 C 20 %
507 28-03-2020 12:20:17 17.7 C 20 %
508 28-03-2020 12:30:17 17.8 C 20 %
509 28-03-2020 12:40:17 18.1 C 20 %
510 28-03-2020 12:50:18 18 C 20 %
511 28-03-2020 13:00:18 18.6 C 20 %
512 28-03-2020 13:10:18 19.6 C 20 %
513 28-03-2020 13:20:18 21.7 C 20 %
514 28-03-2020 13:30:17 21.1 C 20 %
515 28-03-2020 13:40:17 20.7 C 20 %
516 28-03-2020 13:50:18 20.6 C 20 %
517 28-03-2020 14:00:17 21.1 C 20 %
518 28-03-2020 14:10:17 21.3 C 20 %
519 28-03-2020 14:20:17 21.9 C 20 %
520 28-03-2020 14:30:17 23.7 C 20 %
521 28-03-2020 14:40:17 24.3 C 20 %
522 28-03-2020 14:50:17 23.2 C 20 %
523 28-03-2020 15:00:18 22.4 C 20 %
524 28-03-2020 15:10:18 19.9 C 20 %
525 28-03-2020 15:20:18 18.6 C 20 %
Sensor: Nr:Datum:Temp:Feuchte:
Aussen-T/F 526 28-03-2020 15:30:18 19.6 C 20 %
527 28-03-2020 15:40:18 22.1 C 20 %
528 28-03-2020 15:50:18 20.5 C 20 %
529 28-03-2020 16:00:18 21.1 C 20 %
530 28-03-2020 16:10:18 21.1 C 20 %
531 28-03-2020 16:20:18 19.9 C 20 %
532 28-03-2020 16:30:18 19.6 C 20 %
533 28-03-2020 16:40:18 19.6 C 20 %
534 28-03-2020 16:50:18 18.5 C 20 %
535 28-03-2020 17:00:18 17.9 C 20 %
536 28-03-2020 17:10:18 17 C 20 %
537 28-03-2020 17:20:18 16.6 C 20 %
538 28-03-2020 17:30:18 16.2 C 20 %
539 28-03-2020 17:40:18 16.2 C 20 %
540 28-03-2020 17:50:17 15.4 C 20 %
541 28-03-2020 18:00:18 14.9 C 20 %
542 28-03-2020 18:10:18 14.6 C 20 %
543 28-03-2020 18:20:17 14 C 20 %
544 28-03-2020 18:30:17 13.5 C 20 %
545 28-03-2020 18:40:17 13.1 C 20 %
546 28-03-2020 18:50:18 12.6 C 20 %
547 28-03-2020 19:00:18 12.3 C 20 %
548 28-03-2020 19:10:18 11.7 C 20 %
549 28-03-2020 19:20:18 11.7 C 20 %
550 28-03-2020 19:30:18 11.4 C 20 %
Sensor: Nr:Datum:Temp:Feuchte:
Aussen-T/F 551 28-03-2020 19:40:18 11.2 C 20 %
552 28-03-2020 19:50:17 10.8 C 20 %
553 28-03-2020 20:00:18 10.3 C 20 %
554 28-03-2020 20:10:18 10.7 C 20 %
555 28-03-2020 20:20:17 10.5 C 20 %
556 28-03-2020 20:30:18 10 C 20 %
557 28-03-2020 20:40:18 9.2 C 20 %
558 28-03-2020 20:50:17 8.7 C 20 %
559 28-03-2020 21:00:17 8.8 C 20 %
560 28-03-2020 21:10:17 9.2 C 20 %
561 28-03-2020 21:20:17 8.7 C 23 %
562 28-03-2020 21:30:17 8.1 C 25 %
563 28-03-2020 21:40:17 8.4 C 23 %
564 28-03-2020 21:50:17 7.6 C 25 %
565 28-03-2020 22:00:17 8.3 C 25 %
566 28-03-2020 22:10:17 8.5 C 21 %
567 28-03-2020 22:20:17 8.4 C 25 %
568 28-03-2020 22:30:17 8.3 C 26 %
569 28-03-2020 22:40:17 7.9 C 26 %
570 28-03-2020 22:50:17 7.4 C 28 %
571 28-03-2020 23:00:17 7.3 C 30 %
572 28-03-2020 23:10:17 7.2 C 30 %
573 28-03-2020 23:20:18 7.1 C 30 %
574 28-03-2020 23:30:18 7.1 C 31 %
575 28-03-2020 23:40:18 6.8 C 32 %
Sensor: Nr:Datum:Temp:Feuchte:
Aussen-T/F 576 28-03-2020 23:50:17 6.7 C 33 %
577 29-03-2020 00:00:18 6.5 C 33 %
578 29-03-2020 00:10:18 6.4 C 33 %
579 29-03-2020 00:20:17 6.2 C 33 %
580 29-03-2020 00:30:17 6.5 C 33 %
581 29-03-2020 00:40:17 6.6 C 33 %
582 29-03-2020 00:50:18 6.5 C 32 %
583 29-03-2020 01:00:18 6.3 C 32 %
584 29-03-2020 01:10:18 6.3 C 32 %
585 29-03-2020 01:20:17 6.2 C 32 %
586 29-03-2020 01:30:17 6.1 C 32 %
587 29-03-2020 01:40:17 6 C 31 %
588 29-03-2020 01:50:17 6 C 31 %
589 29-03-2020 02:00:17 5.8 C 31 %
590 29-03-2020 02:10:17 5.7 C 31 %
591 29-03-2020 02:20:18 5.4 C 31 %
592 29-03-2020 02:30:18 5 C 31 %
593 29-03-2020 02:40:18 4.7 C 32 %
594 29-03-2020 02:50:18 4.7 C 32 %
595 29-03-2020 04:00:18 4.6 C 31 %
596 29-03-2020 04:10:18 4.2 C 32 %
597 29-03-2020 04:20:17 4.1 C 31 %
598 29-03-2020 04:30:17 4.3 C 31 %
599 29-03-2020 04:40:17 4.4 C 31 %
600 29-03-2020 04:50:18 4.3 C 31 %
Sensor: Nr:Datum:Temp:Feuchte:
Aussen-T/F 601 29-03-2020 05:00:17 4.4 C 32 %
602 29-03-2020 05:10:17 4.3 C 32 %
603 29-03-2020 05:20:17 4.2 C 31 %
604 29-03-2020 05:30:17 4 C 31 %
605 29-03-2020 05:40:17 3.8 C 32 %
606 29-03-2020 05:50:18 3.5 C 32 %
607 29-03-2020 06:00:18 3.1 C 32 %
608 29-03-2020 06:10:18 2.8 C 33 %
609 29-03-2020 06:20:17 2.5 C 33 %
610 29-03-2020 06:30:18 2.9 C 33 %
611 29-03-2020 06:40:18 3.2 C 32 %
612 29-03-2020 06:50:17 3.3 C 33 %
613 29-03-2020 07:00:18 3.4 C 33 %
614 29-03-2020 07:10:18 3.5 C 34 %
615 29-03-2020 07:20:17 3.5 C 35 %
616 29-03-2020 07:30:17 3.6 C 35 %
617 29-03-2020 07:40:17 3.7 C 35 %
618 29-03-2020 07:50:17 3.7 C 35 %
619 29-03-2020 08:00:18 3.8 C 35 %
620 29-03-2020 08:10:18 3.8 C 35 %
621 29-03-2020 08:20:17 4.1 C 33 %
622 29-03-2020 08:30:17 4.1 C 33 %
623 29-03-2020 08:40:17 4.3 C 33 %
624 29-03-2020 08:50:17 4 C 33 %
625 29-03-2020 09:00:17 4.3 C 33 %
Sensor: Nr:Datum:Temp:Feuchte:
Aussen-T/F 626 29-03-2020 09:10:17 4.2 C 32 %
627 29-03-2020 09:20:17 4.1 C 33 %
628 29-03-2020 09:30:17 4.2 C 33 %
629 29-03-2020 09:40:17 4.5 C 32 %
630 29-03-2020 09:50:17 4.8 C 32 %
631 29-03-2020 10:00:17 5 C 31 %
632 29-03-2020 10:10:17 5.3 C 31 %
633 29-03-2020 10:20:17 5.8 C 30 %
634 29-03-2020 10:30:18 5.6 C 30 %
635 29-03-2020 10:40:18 6.2 C 30 %
636 29-03-2020 10:50:17 6.2 C 28 %
637 29-03-2020 11:00:18 6.5 C 25 %
638 29-03-2020 11:10:18 6.5 C 25 %
639 29-03-2020 11:20:18 6 C 25 %
640 29-03-2020 11:30:18 6.1 C 25 %
641 29-03-2020 11:40:18 6.2 C 25 %
642 29-03-2020 11:50:17 6.3 C 25 %
643 29-03-2020 12:00:17 6.2 C 25 %
644 29-03-2020 12:10:17 5.6 C 27 %
645 29-03-2020 12:20:17 5.5 C 27 %
646 29-03-2020 12:30:17 5.7 C 27 %
647 29-03-2020 12:40:17 5.8 C 26 %
648 29-03-2020 12:50:18 6.4 C 26 %
649 29-03-2020 13:00:18 6.3 C 25 %
650 29-03-2020 13:10:18 6.1 C 25 %
Sensor: Nr:Datum:Temp:Feuchte:
Aussen-T/F 651 29-03-2020 13:20:17 6.6 C 23 %
652 29-03-2020 13:30:17 6.8 C 20 %
653 29-03-2020 13:40:18 8.1 C 20 %
654 29-03-2020 13:50:17 8.4 C 20 %
655 29-03-2020 14:00:18 7.6 C 20 %
656 29-03-2020 14:10:18 7.5 C 20 %
657 29-03-2020 14:20:17 7 C 20 %
658 29-03-2020 14:30:17 6.7 C 20 %
659 29-03-2020 14:40:17 6.5 C 20 %
660 29-03-2020 14:50:17 6.7 C 20 %
661 29-03-2020 15:00:17 7.2 C 20 %
662 29-03-2020 15:10:17 7.4 C 20 %
663 29-03-2020 15:20:17 7.4 C 20 %
664 29-03-2020 15:30:18 7.6 C 20 %
665 29-03-2020 15:40:18 7.6 C 20 %
666 29-03-2020 15:50:17 8 C 20 %
667 29-03-2020 16:00:18 7.4 C 20 %
668 29-03-2020 16:10:18 7 C 20 %
669 29-03-2020 16:20:17 6.7 C 20 %
670 29-03-2020 16:30:18 6.5 C 20 %
671 29-03-2020 16:40:18 6.6 C 20 %
672 29-03-2020 16:50:18 6.8 C 20 %
673 29-03-2020 17:00:18 7 C 20 %
674 29-03-2020 17:10:18 6.8 C 20 %
675 29-03-2020 17:20:17 7.4 C 20 %
Sensor: Nr:Datum:Temp:Feuchte:
Aussen-T/F 676 29-03-2020 17:30:17 7 C 20 %
677 29-03-2020 17:40:17 7 C 20 %
678 29-03-2020 17:50:18 6.8 C 25 %
679 29-03-2020 18:00:18 7.1 C 23 %
680 29-03-2020 18:10:18 6.5 C 25 %
681 29-03-2020 18:20:18 6.2 C 25 %
682 29-03-2020 18:30:18 5.3 C 29 %
683 29-03-2020 18:40:18 4.4 C 35 %
684 29-03-2020 18:50:18 4.1 C 36 %
685 29-03-2020 19:00:18 4 C 36 %
686 29-03-2020 19:10:18 3.6 C 39 %
687 29-03-2020 19:20:17 3.6 C 40 %
688 29-03-2020 19:30:17 3.4 C 40 %
689 29-03-2020 19:40:17 3.2 C 41 %
690 29-03-2020 19:50:17 3.1 C 41 %
691 29-03-2020 20:00:17 3 C 41 %
692 29-03-2020 20:10:17 3 C 41 %
693 29-03-2020 20:20:18 2.9 C 42 %
694 29-03-2020 20:30:18 3 C 41 %
695 29-03-2020 20:40:18 3.3 C 40 %
696 29-03-2020 20:50:18 3.5 C 40 %
697 29-03-2020 21:00:18 3.6 C 39 %
698 29-03-2020 21:10:18 3.7 C 39 %
699 29-03-2020 21:20:18 3.7 C 38 %
700 29-03-2020 21:30:17 3.7 C 37 %
Sensor: Nr:Datum:Temp:Feuchte:
Aussen-T/F 701 29-03-2020 21:40:17 3.8 C 37 %
702 29-03-2020 21:50:17 3.8 C 37 %
703 29-03-2020 22:00:17 3.7 C 37 %
704 29-03-2020 22:10:17 3.7 C 36 %
705 29-03-2020 22:20:18 3.7 C 36 %
706 29-03-2020 22:30:18 3.6 C 36 %
707 29-03-2020 22:40:18 3.6 C 36 %
708 29-03-2020 22:50:18 3.6 C 35 %
709 29-03-2020 23:00:18 3.6 C 35 %
710 29-03-2020 23:10:18 3.5 C 35 %
711 29-03-2020 23:20:17 3.4 C 34 %
712 29-03-2020 23:30:17 3.3 C 33 %
713 29-03-2020 23:40:17 3.1 C 33 %
714 29-03-2020 23:50:17 2.9 C 33 %
715 30-03-2020 00:00:18 2.5 C 34 %
716 30-03-2020 00:10:18 2.4 C 33 %
717 30-03-2020 00:20:17 2.4 C 33 %
718 30-03-2020 00:30:17 1.7 C 35 %
719 30-03-2020 00:40:17 1 C 36 %
720 30-03-2020 00:50:17 0.3 C 38 %
721 30-03-2020 01:00:18 0.2 C 38 %
722 30-03-2020 01:10:18 0.3 C 38 %
723 30-03-2020 01:20:17 0.3 C 37 %
724 30-03-2020 01:30:18 0.5 C 36 %
725 30-03-2020 01:40:18 -0.1 C 37 %
Sensor: Nr:Datum:Temp:Feuchte:
Aussen-T/F 726 30-03-2020 01:50:17 -0.3 C 37 %
727 30-03-2020 02:00:17 -0.8 C 38 %
728 30-03-2020 02:10:17 -0.9 C 38 %
729 30-03-2020 02:20:17 -1.5 C 39 %
730 30-03-2020 02:30:18 -1.7 C 39 %
731 30-03-2020 02:40:18 -1.6 C 40 %
732 30-03-2020 02:50:17 -1.6 C 39 %
733 30-03-2020 03:00:18 -1.7 C 39 %
734 30-03-2020 03:10:18 -1.3 C 38 %
735 30-03-2020 03:20:18 -1.7 C 39 %
736 30-03-2020 03:30:18 -2.2 C 40 %
737 30-03-2020 03:40:18 -2.1 C 40 %
738 30-03-2020 03:50:17 -2.1 C 40 %
739 30-03-2020 04:00:18 -1.9 C 39 %
740 30-03-2020 04:10:18 -2.2 C 39 %
741 30-03-2020 04:20:17 -2 C 39 %
742 30-03-2020 04:30:17 -2.4 C 39 %
743 30-03-2020 04:40:17 -2.6 C 39 %
744 30-03-2020 04:50:17 -2.4 C 39 %
745 30-03-2020 05:00:17 -2.4 C 38 %
746 30-03-2020 05:10:17 -2.5 C 38 %
747 30-03-2020 05:20:17 -2.7 C 38 %
748 30-03-2020 05:30:18 -3 C 39 %
749 30-03-2020 05:40:18 -3 C 38 %
750 30-03-2020 05:50:17 -3 C 38 %
Sensor: Nr:Datum:Temp:Feuchte:
Aussen-T/F 751 30-03-2020 06:00:18 -3 C 38 %
752 30-03-2020 06:10:18 -3.4 C 38 %
753 30-03-2020 06:20:17 -3.7 C 39 %
754 30-03-2020 06:30:17 -3.9 C 40 %
755 30-03-2020 06:40:17 -4.1 C 40 %
756 30-03-2020 06:50:17 -3.3 C 39 %
757 30-03-2020 07:00:17 -3.7 C 40 %
758 30-03-2020 07:10:17 -3.2 C 39 %
759 30-03-2020 07:20:17 -3.8 C 39 %
760 30-03-2020 07:30:18 -4.3 C 40 %
761 30-03-2020 07:40:18 -4.5 C 40 %
762 30-03-2020 07:50:17 -4.5 C 40 %
763 30-03-2020 08:00:18 -3.8 C 40 %
764 30-03-2020 08:10:18 -3.9 C 40 %
765 30-03-2020 08:20:18 -4.1 C 40 %
766 30-03-2020 08:30:18 -3.7 C 39 %
767 30-03-2020 08:40:18 -3.3 C 39 %
768 30-03-2020 08:50:17 -3.2 C 38 %
769 30-03-2020 09:00:18 -3.1 C 38 %
770 30-03-2020 09:10:18 -2.7 C 37 %
771 30-03-2020 09:20:18 -2.6 C 37 %
772 30-03-2020 09:30:18 -2.5 C 37 %
773 30-03-2020 09:40:18 -2.1 C 37 %
774 30-03-2020 09:50:18 -2.1 C 37 %
775 30-03-2020 10:00:18 -1.6 C 36 %
Sensor: Nr:Datum:Temp:Feuchte:
Aussen-T/F 776 30-03-2020 10:10:18 -1.7 C 37 %
777 30-03-2020 10:20:17 -1.5 C 37 %
778 30-03-2020 10:30:17 -1.3 C 36 %
779 30-03-2020 10:40:17 0.1 C 31 %
780 30-03-2020 10:50:17 1 C 21 %
781 30-03-2020 11:00:17 1.1 C 23 %
782 30-03-2020 11:10:18 2 C 20 %
783 30-03-2020 11:20:18 2.4 C 20 %
784 30-03-2020 11:30:18 2.8 C 20 %
785 30-03-2020 11:40:18 2.9 C 20 %
786 30-03-2020 11:50:18 3.2 C 20 %
787 30-03-2020 12:00:18 3.7 C 20 %
788 30-03-2020 12:10:18 4 C 20 %
789 30-03-2020 12:20:18 6.4 C 20 %
790 30-03-2020 12:30:18 7.6 C 20 %
791 30-03-2020 12:40:18 6.3 C 20 %
792 30-03-2020 12:50:18 5.1 C 20 %
793 30-03-2020 13:00:18 6.6 C 20 %
794 30-03-2020 13:10:18 6.5 C 20 %
795 30-03-2020 13:20:18 5.6 C 20 %
796 30-03-2020 13:30:17 5.9 C 20 %
797 30-03-2020 13:40:17 7 C 20 %
798 30-03-2020 13:50:17 6.4 C 20 %
799 30-03-2020 14:00:17 7.1 C 20 %
800 30-03-2020 14:10:17 8.4 C 20 %
Sensor: Nr:Datum:Temp:Feuchte:
Aussen-T/F 801 30-03-2020 14:20:18 8.9 C 20 %
802 30-03-2020 14:30:18 9.5 C 20 %
803 30-03-2020 14:40:18 9.7 C 20 %
804 30-03-2020 14:50:18 10.8 C 20 %
805 30-03-2020 15:00:18 11.3 C 20 %
806 30-03-2020 15:10:18 11.7 C 20 %
807 30-03-2020 15:20:17 11.6 C 20 %
808 30-03-2020 15:30:18 13.5 C 20 %
809 30-03-2020 15:40:18 13.6 C 20 %
810 30-03-2020 15:50:18 11.9 C 20 %
811 30-03-2020 16:00:18 12.9 C 20 %
812 30-03-2020 16:10:18 13.6 C 20 %
813 30-03-2020 16:20:17 15.2 C 20 %
814 30-03-2020 16:30:18 9.9 C 20 %
815 30-03-2020 16:40:18 13.9 C 20 %
816 30-03-2020 16:50:18 13.6 C 20 %
817 30-03-2020 17:00:17 10.1 C 20 %
818 30-03-2020 17:10:17 13.4 C 20 %
819 30-03-2020 17:20:18 12.5 C 20 %
820 30-03-2020 17:30:18 12.6 C 20 %
821 30-03-2020 17:40:18 11.6 C 20 %
822 30-03-2020 17:50:18 10.2 C 20 %
823 30-03-2020 18:00:18 8.7 C 20 %
824 30-03-2020 18:10:18 7.6 C 20 %
825 30-03-2020 18:20:18 7.9 C 20 %
Sensor: Nr:Datum:Temp:Feuchte:
Aussen-T/F 826 30-03-2020 18:30:18 8.2 C 20 %
827 30-03-2020 18:40:18 7.7 C 20 %
828 30-03-2020 18:50:18 7.8 C 20 %
829 30-03-2020 19:00:18 7.3 C 20 %
830 30-03-2020 19:10:18 7.1 C 20 %
831 30-03-2020 19:20:17 6.5 C 20 %
832 30-03-2020 19:30:18 6.3 C 20 %
833 30-03-2020 19:40:18 5.8 C 20 %
834 30-03-2020 19:50:17 5 C 20 %
835 30-03-2020 20:00:18 3.8 C 27 %
836 30-03-2020 20:10:18 3 C 30 %
837 30-03-2020 20:20:17 2.8 C 30 %
838 30-03-2020 20:30:18 3.3 C 31 %
839 30-03-2020 20:40:18 3.2 C 30 %
840 30-03-2020 20:50:18 3.3 C 31 %
841 30-03-2020 21:00:18 4 C 29 %
842 30-03-2020 21:10:18 4.1 C 29 %
843 30-03-2020 21:20:18 4.2 C 30 %
844 30-03-2020 21:30:18 4.3 C 30 %
845 30-03-2020 21:40:18 4.2 C 30 %
846 30-03-2020 21:50:18 4.1 C 30 %
847 30-03-2020 22:00:18 3.7 C 32 %
848 30-03-2020 22:10:18 3.7 C 33 %
849 30-03-2020 22:20:17 3.9 C 32 %
850 30-03-2020 22:30:18 4 C 31 %
Sensor: Nr:Datum:Temp:Feuchte:
Aussen-T/F 851 30-03-2020 22:40:18 4.1 C 31 %
852 30-03-2020 22:50:18 4.2 C 31 %
853 30-03-2020 23:00:18 4.1 C 31 %
854 30-03-2020 23:10:18 4.2 C 30 %
855 30-03-2020 23:20:18 4.2 C 31 %
856 30-03-2020 23:30:18 4.1 C 31 %
857 30-03-2020 23:40:18 4.2 C 31 %
858 30-03-2020 23:50:17 4.2 C 31 %
859 31-03-2020 00:00:18 4.3 C 30 %
860 31-03-2020 00:10:18 4.3 C 30 %
861 31-03-2020 00:20:18 4.2 C 31 %
862 31-03-2020 00:30:18 4.2 C 31 %
863 31-03-2020 00:40:18 4.2 C 31 %
864 31-03-2020 00:50:18 4.3 C 31 %
865 31-03-2020 01:00:18 4.4 C 32 %
866 31-03-2020 01:10:18 4 C 34 %
867 31-03-2020 01:20:18 3.8 C 36 %
868 31-03-2020 01:30:18 3.8 C 36 %
869 31-03-2020 01:40:18 3.7 C 37 %
870 31-03-2020 01:50:18 4 C 37 %
871 31-03-2020 02:00:18 3.9 C 38 %
872 31-03-2020 02:10:18 3.4 C 39 %
873 31-03-2020 02:20:17 3.5 C 39 %
874 31-03-2020 02:30:18 3.7 C 39 %
875 31-03-2020 02:40:18 3.3 C 40 %
Sensor: Nr:Datum:Temp:Feuchte:
Aussen-T/F 876 31-03-2020 02:50:18 2.8 C 41 %
877 31-03-2020 03:00:18 2.5 C 41 %
878 31-03-2020 03:10:18 2.2 C 42 %
879 31-03-2020 03:20:17 2.4 C 42 %
880 31-03-2020 03:30:18 2.3 C 42 %
881 31-03-2020 03:40:18 2.3 C 43 %
882 31-03-2020 03:50:18 2.7 C 43 %
883 31-03-2020 04:00:18 2.9 C 42 %
884 31-03-2020 04:10:18 3 C 42 %
885 31-03-2020 04:20:18 3.1 C 42 %
886 31-03-2020 04:30:17 3.2 C 42 %
887 31-03-2020 04:40:18 3.2 C 41 %
888 31-03-2020 04:50:17 3.5 C 41 %
889 31-03-2020 05:00:18 3.4 C 41 %
890 31-03-2020 05:10:18 3 C 41 %
891 31-03-2020 05:20:17 2.8 C 43 %
892 31-03-2020 05:30:18 2.5 C 43 %
893 31-03-2020 05:40:18 2.3 C 43 %
894 31-03-2020 05:50:18 1.9 C 44 %
895 31-03-2020 06:00:18 1.7 C 44 %
896 31-03-2020 06:10:18 1.6 C 45 %
897 31-03-2020 06:20:18 1.5 C 45 %
898 31-03-2020 06:30:18 1.7 C 45 %
899 31-03-2020 06:40:18 2 C 45 %
900 31-03-2020 06:50:18 2.1 C 45 %
Sensor: Nr:Datum:Temp:Feuchte:
Aussen-T/F 901 31-03-2020 07:00:18 2.2 C 45 %
902 31-03-2020 07:10:18 2.3 C 45 %
903 31-03-2020 07:20:18 2.2 C 44 %
904 31-03-2020 07:30:18 2.1 C 44 %
905 31-03-2020 07:40:18 1.7 C 45 %
906 31-03-2020 07:50:17 2 C 45 %
907 31-03-2020 08:00:18 2.5 C 45 %
908 31-03-2020 08:10:18 3.1 C 43 %
909 31-03-2020 08:20:18 3.3 C 42 %
910 31-03-2020 08:30:18 3.5 C 41 %
911 31-03-2020 08:40:18 3.7 C 40 %
912 31-03-2020 08:50:17 4 C 38 %
913 31-03-2020 09:00:18 3.9 C 38 %
914 31-03-2020 09:10:18 3.9 C 37 %
915 31-03-2020 09:20:18 4 C 36 %
916 31-03-2020 09:30:17 4 C 36 %
917 31-03-2020 09:40:17 4.1 C 35 %
918 31-03-2020 09:50:18 4.3 C 35 %
919 31-03-2020 10:00:18 4.8 C 34 %
920 31-03-2020 10:10:18 4.7 C 34 %
921 31-03-2020 10:20:18 4.5 C 34 %
922 31-03-2020 10:30:18 4.4 C 34 %
923 31-03-2020 10:40:18 4.3 C 34 %
924 31-03-2020 10:50:17 4.3 C 33 %
925 31-03-2020 11:00:17 4.3 C 33 %
Sensor: Nr:Datum:Temp:Feuchte:
Aussen-T/F 926 31-03-2020 11:10:17 4.4 C 32 %
927 31-03-2020 11:20:18 4.7 C 31 %
928 31-03-2020 11:30:18 5.4 C 30 %
929 31-03-2020 11:40:18 5.3 C 30 %
930 31-03-2020 11:50:17 5.3 C 29 %
931 31-03-2020 12:00:18 5.6 C 27 %
932 31-03-2020 12:10:18 6.3 C 25 %
933 31-03-2020 12:20:17 6.4 C 20 %
934 31-03-2020 12:30:18 9.2 C 20 %
935 31-03-2020 12:40:18 8.4 C 20 %
936 31-03-2020 12:50:18 7 C 20 %
937 31-03-2020 13:00:17 7.5 C 20 %
938 31-03-2020 13:10:17 7.1 C 20 %
939 31-03-2020 13:20:17 7.3 C 20 %
940 31-03-2020 13:30:17 7 C 20 %
941 31-03-2020 13:40:17 8.1 C 20 %
942 31-03-2020 13:51:17 8.4 C 20 %
943 31-03-2020 14:00:17 8.5 C 20 %
944 31-03-2020 14:10:17 9.7 C 20 %
945 31-03-2020 14:20:17 11.2 C 20 %
946 31-03-2020 14:30:17 12.6 C 20 %
947 31-03-2020 14:40:17 11.7 C 20 %
948 31-03-2020 14:51:17 12 C 20 %
949 31-03-2020 15:00:17 12 C 20 %
950 31-03-2020 15:10:18 13.1 C 20 %
Sensor: Nr:Datum:Temp:Feuchte:
Aussen-T/F 951 31-03-2020 15:20:17 13.2 C 20 %
952 31-03-2020 15:30:17 13.5 C 20 %
953 31-03-2020 15:40:17 14.6 C 20 %
954 31-03-2020 15:50:18 13.9 C 20 %
955 31-03-2020 16:00:17 16.8 C 20 %
956 31-03-2020 16:10:17 14.8 C 20 %
957 31-03-2020 16:20:17 15.8 C 20 %
958 31-03-2020 16:31:17 15.1 C 20 %
959 31-03-2020 16:40:17 14 C 20 %
960 31-03-2020 16:50:17 13.3 C 20 %
961 31-03-2020 17:00:17 14.4 C 20 %
962 31-03-2020 17:10:17 16.2 C 20 %
963 31-03-2020 17:21:17 15.3 C 20 %
964 31-03-2020 17:31:17 14.7 C 20 %
965 31-03-2020 17:40:17 15.5 C 20 %
966 31-03-2020 17:51:17 10.6 C 20 %
967 31-03-2020 18:01:17 10.5 C 20 %
968 31-03-2020 18:11:17 10.2 C 20 %
969 31-03-2020 18:21:17 9.8 C 20 %
970 31-03-2020 18:31:17 9.6 C 20 %
971 31-03-2020 18:40:17 9.4 C 20 %
972 31-03-2020 18:51:17 9.1 C 20 %
973 31-03-2020 19:00:17 9.1 C 20 %
974 31-03-2020 19:10:17 8.8 C 20 %
975 31-03-2020 19:20:17 8.7 C 20 %
Sensor: Nr:Datum:Temp:Feuchte:
Aussen-T/F 976 31-03-2020 19:31:17 8.2 C 20 %
977 31-03-2020 19:41:17 7.7 C 20 %
978 31-03-2020 19:50:17 6.6 C 20 %
979 31-03-2020 20:01:17 5.6 C 20 %
980 31-03-2020 20:11:17 5.5 C 20 %
981 31-03-2020 20:21:17 5.3 C 20 %
982 31-03-2020 20:31:17 4.7 C 20 %
983 31-03-2020 20:41:17 4.4 C 20 %
984 31-03-2020 20:51:17 4 C 20 %
985 31-03-2020 21:00:17 3.7 C 20 %
986 31-03-2020 21:10:18 3.9 C 20 %
987 31-03-2020 21:21:17 3.7 C 20 %
988 31-03-2020 21:31:17 3.5 C 20 %
989 31-03-2020 21:41:17 3.2 C 23 %
990 31-03-2020 21:51:17 3.2 C 23 %
991 31-03-2020 22:00:18 3 C 23 %
992 31-03-2020 22:10:18 2.7 C 25 %
993 31-03-2020 22:21:17 2.7 C 25 %
994 31-03-2020 22:31:17 2.6 C 25 %
995 31-03-2020 22:41:17 1.8 C 30 %
996 31-03-2020 22:50:18 1.6 C 30 %
997 31-03-2020 23:01:17 1.6 C 30 %
998 31-03-2020 23:11:17 1.7 C 30 %
999 31-03-2020 23:21:17 1.4 C 31 %
1000 31-03-2020 23:30:17 1.3 C 31 %
Sensor: Nr:Datum:Temp:Feuchte:
Aussen-T/F 1001 31-03-2020 23:40:18 1.6 C 31 %
1002 31-03-2020 23:51:17 0.9 C 32 %
Sensor: Nr:Datum:Temp:Feuchte:
G-T/H 1 25-03-2020 00:00:17 8.2 C 64 %
2 25-03-2020 00:10:17 8.2 C 64 %
3 25-03-2020 00:20:17 8.1 C 64 %
4 25-03-2020 00:30:17 8.1 C 64 %
5 25-03-2020 00:40:18 8.1 C 64 %
6 25-03-2020 00:50:17 8.1 C 64 %
7 25-03-2020 01:00:17 8.1 C 64 %
8 25-03-2020 01:10:18 8.1 C 64 %
9 25-03-2020 01:20:17 8.1 C 64 %
10 25-03-2020 01:30:18 8.1 C 64 %
11 25-03-2020 01:40:18 8.1 C 64 %
12 25-03-2020 01:50:17 8.1 C 64 %
13 25-03-2020 02:00:17 8.1 C 64 %
14 25-03-2020 02:10:18 8 C 64 %
15 25-03-2020 02:20:18 8 C 64 %
16 25-03-2020 02:30:18 8 C 64 %
17 25-03-2020 02:40:18 8 C 64 %
18 25-03-2020 02:50:18 8 C 63 %
19 25-03-2020 03:00:18 8 C 63 %
20 25-03-2020 03:10:18 8 C 63 %
21 25-03-2020 03:20:17 8 C 63 %
22 25-03-2020 03:30:17 7.9 C 64 %
23 25-03-2020 03:40:17 7.9 C 64 %
24 25-03-2020 03:50:17 7.9 C 64 %
25 25-03-2020 04:00:17 7.9 C 64 %
Sensor: Nr:Datum:Temp:Feuchte:
G-T/H 26 25-03-2020 04:10:17 7.9 C 64 %
27 25-03-2020 04:20:17 7.9 C 64 %
28 25-03-2020 04:30:18 7.9 C 64 %
29 25-03-2020 04:40:18 7.8 C 64 %
30 25-03-2020 04:50:17 7.8 C 64 %
31 25-03-2020 05:00:18 7.8 C 64 %
32 25-03-2020 05:10:18 7.8 C 64 %
33 25-03-2020 05:20:17 7.8 C 64 %
34 25-03-2020 05:30:17 7.8 C 64 %
35 25-03-2020 05:40:17 7.7 C 64 %
36 25-03-2020 05:50:17 7.8 C 64 %
37 25-03-2020 06:00:17 7.7 C 64 %
38 25-03-2020 06:10:17 7.7 C 64 %
39 25-03-2020 06:20:17 7.7 C 64 %
40 25-03-2020 06:30:17 7.7 C 64 %
41 25-03-2020 06:40:17 7.7 C 64 %
42 25-03-2020 06:50:17 7.6 C 63 %
43 25-03-2020 07:00:17 7.6 C 63 %
44 25-03-2020 07:10:17 7.6 C 63 %
45 25-03-2020 07:20:17 7.6 C 63 %
46 25-03-2020 07:30:17 7.6 C 63 %
47 25-03-2020 07:40:17 7.6 C 63 %
48 25-03-2020 07:50:17 7.6 C 63 %
49 25-03-2020 08:00:17 7.5 C 63 %
50 25-03-2020 08:10:17 7.6 C 63 %
Sensor: Nr:Datum:Temp:Feuchte:
G-T/H 51 25-03-2020 08:20:17 7.6 C 63 %
52 25-03-2020 08:30:17 7.5 C 63 %
53 25-03-2020 08:40:17 7.5 C 63 %
54 25-03-2020 08:50:17 7.5 C 63 %
55 25-03-2020 09:00:17 7.5 C 63 %
56 25-03-2020 09:10:17 7.5 C 63 %
57 25-03-2020 09:20:17 7.5 C 64 %
58 25-03-2020 09:30:17 7.5 C 64 %
59 25-03-2020 09:40:18 7.5 C 64 %
60 25-03-2020 09:50:17 7.5 C 64 %
61 25-03-2020 10:00:18 7.4 C 64 %
62 25-03-2020 10:10:18 7.4 C 64 %
63 25-03-2020 10:20:17 7.5 C 64 %
64 25-03-2020 10:30:17 7.5 C 64 %
65 25-03-2020 10:40:17 7.4 C 64 %
66 25-03-2020 10:50:17 7.4 C 64 %
67 25-03-2020 11:00:17 7.4 C 64 %
68 25-03-2020 11:10:17 7.4 C 64 %
69 25-03-2020 11:20:17 7.5 C 64 %
70 25-03-2020 11:30:18 7.5 C 64 %
71 25-03-2020 11:40:18 7.4 C 64 %
72 25-03-2020 11:50:17 7.4 C 64 %
73 25-03-2020 12:00:17 7.5 C 64 %
74 25-03-2020 12:10:17 7.4 C 64 %
75 25-03-2020 12:20:17 7.4 C 64 %
Sensor: Nr:Datum:Temp:Feuchte:
G-T/H 76 25-03-2020 12:30:17 7.5 C 64 %
77 25-03-2020 12:40:17 7.5 C 64 %
78 25-03-2020 12:50:17 7.5 C 64 %
79 25-03-2020 13:00:17 7.5 C 64 %
80 25-03-2020 13:10:17 7.5 C 64 %
81 25-03-2020 13:20:18 7.5 C 64 %
82 25-03-2020 13:30:18 7.5 C 64 %
83 25-03-2020 13:40:18 7.5 C 64 %
84 25-03-2020 13:50:18 7.5 C 64 %
85 25-03-2020 14:00:18 7.5 C 64 %
86 25-03-2020 14:10:18 7.6 C 64 %
87 25-03-2020 14:20:17 7.6 C 64 %
88 25-03-2020 14:30:17 7.6 C 64 %
89 25-03-2020 14:40:17 7.6 C 64 %
90 25-03-2020 14:50:17 7.7 C 63 %
91 25-03-2020 15:00:17 7.6 C 62 %
92 25-03-2020 15:10:17 7.7 C 62 %
93 25-03-2020 15:20:18 7.6 C 62 %
94 25-03-2020 15:30:18 7.7 C 62 %
95 25-03-2020 15:40:18 7.7 C 62 %
96 25-03-2020 15:50:17 7.7 C 62 %
97 25-03-2020 16:00:18 7.7 C 62 %
98 25-03-2020 16:10:18 7.8 C 62 %
99 25-03-2020 16:20:17 7.7 C 62 %
100 25-03-2020 16:30:17 7.8 C 62 %
Sensor: Nr:Datum:Temp:Feuchte:
G-T/H 101 25-03-2020 16:40:17 7.8 C 62 %
102 25-03-2020 16:50:18 7.8 C 62 %
103 25-03-2020 17:00:18 7.8 C 62 %
104 25-03-2020 17:10:18 7.8 C 62 %
105 25-03-2020 17:20:17 7.9 C 62 %
106 25-03-2020 17:30:17 7.9 C 62 %
107 25-03-2020 17:40:17 7.9 C 62 %
108 25-03-2020 17:50:17 7.9 C 62 %
109 25-03-2020 18:00:18 7.9 C 62 %
110 25-03-2020 18:10:18 7.9 C 62 %
111 25-03-2020 18:20:17 8 C 62 %
112 25-03-2020 18:30:18 8 C 62 %
113 25-03-2020 18:40:18 8 C 62 %
114 25-03-2020 18:50:18 8 C 62 %
115 25-03-2020 19:00:18 8 C 62 %
116 25-03-2020 19:10:18 8 C 63 %
117 25-03-2020 19:20:17 8 C 63 %
118 25-03-2020 19:30:18 8 C 63 %
119 25-03-2020 19:40:18 8 C 63 %
120 25-03-2020 19:50:17 8 C 63 %
121 25-03-2020 20:00:17 8.1 C 63 %
122 25-03-2020 20:10:17 8.1 C 64 %
123 25-03-2020 20:20:17 8.1 C 64 %
124 25-03-2020 20:30:18 8.1 C 64 %
125 25-03-2020 20:40:18 8.1 C 64 %
Sensor: Nr:Datum:Temp:Feuchte:
G-T/H 126 25-03-2020 20:50:17 8.1 C 64 %
127 25-03-2020 21:00:18 8.1 C 64 %
128 25-03-2020 21:10:18 8.1 C 64 %
129 25-03-2020 21:20:17 8.1 C 64 %
130 25-03-2020 21:30:17 8.1 C 64 %
131 25-03-2020 21:40:17 8.1 C 64 %
132 25-03-2020 21:50:17 8.1 C 64 %
133 25-03-2020 22:00:17 8.1 C 64 %
134 25-03-2020 22:10:17 8.1 C 64 %
135 25-03-2020 22:20:17 8.1 C 64 %
136 25-03-2020 22:30:18 8.1 C 64 %
137 25-03-2020 22:40:18 8.2 C 64 %
138 25-03-2020 22:50:18 8.2 C 64 %
139 25-03-2020 23:00:18 8.2 C 64 %
140 25-03-2020 23:10:18 8.2 C 64 %
141 25-03-2020 23:20:17 8.2 C 64 %
142 25-03-2020 23:30:18 8.2 C 64 %
143 25-03-2020 23:40:18 8.2 C 64 %
144 25-03-2020 23:50:18 8.2 C 64 %
145 26-03-2020 00:00:18 8.2 C 64 %
146 26-03-2020 00:10:18 8.1 C 64 %
147 26-03-2020 00:20:18 8.1 C 64 %
148 26-03-2020 00:30:18 8.1 C 64 %
149 26-03-2020 00:40:18 8.1 C 64 %
150 26-03-2020 00:50:18 8.1 C 64 %
Sensor: Nr:Datum:Temp:Feuchte:
G-T/H 151 26-03-2020 01:00:18 8.1 C 64 %
152 26-03-2020 01:10:18 8.1 C 64 %
153 26-03-2020 01:20:17 8.1 C 64 %
154 26-03-2020 01:30:17 8.1 C 64 %
155 26-03-2020 01:40:17 8.1 C 64 %
156 26-03-2020 01:50:17 8.1 C 64 %
157 26-03-2020 02:00:17 8.1 C 64 %
158 26-03-2020 02:10:17 8.1 C 64 %
159 26-03-2020 02:20:17 8.1 C 64 %
160 26-03-2020 02:30:17 8.1 C 64 %
161 26-03-2020 02:40:18 8.1 C 64 %
162 26-03-2020 02:50:17 8.1 C 63 %
163 26-03-2020 03:00:17 8.1 C 63 %
164 26-03-2020 03:10:18 8 C 63 %
165 26-03-2020 03:20:18 8 C 63 %
166 26-03-2020 03:30:18 8 C 63 %
167 26-03-2020 03:40:18 8 C 63 %
168 26-03-2020 03:50:17 8 C 63 %
169 26-03-2020 04:00:17 8 C 63 %
170 26-03-2020 04:10:17 8 C 63 %
171 26-03-2020 04:20:17 8 C 63 %
172 26-03-2020 04:30:18 8 C 63 %
173 26-03-2020 04:40:18 8 C 63 %
174 26-03-2020 04:50:17 8 C 63 %
175 26-03-2020 05:00:18 7.9 C 64 %
Sensor: Nr:Datum:Temp:Feuchte:
G-T/H 176 26-03-2020 05:10:18 7.9 C 64 %
177 26-03-2020 05:20:17 7.9 C 64 %
178 26-03-2020 05:30:17 7.9 C 64 %
179 26-03-2020 05:40:18 7.9 C 64 %
180 26-03-2020 05:50:17 7.9 C 64 %
181 26-03-2020 06:00:18 7.9 C 64 %
182 26-03-2020 06:10:18 7.8 C 64 %
183 26-03-2020 06:20:18 7.8 C 64 %
184 26-03-2020 06:30:18 7.8 C 64 %
185 26-03-2020 06:40:18 7.8 C 64 %
186 26-03-2020 06:50:18 7.8 C 64 %
187 26-03-2020 07:00:18 7.8 C 64 %
188 26-03-2020 07:10:18 7.8 C 64 %
189 26-03-2020 07:20:18 7.8 C 64 %
190 26-03-2020 07:30:18 7.7 C 64 %
191 26-03-2020 07:40:18 7.7 C 64 %
192 26-03-2020 07:50:17 7.7 C 64 %
193 26-03-2020 08:00:18 7.7 C 64 %
194 26-03-2020 08:10:18 7.7 C 64 %
195 26-03-2020 08:20:18 7.7 C 64 %
196 26-03-2020 08:30:18 7.7 C 64 %
197 26-03-2020 08:40:18 7.7 C 64 %
198 26-03-2020 08:50:17 7.7 C 64 %
199 26-03-2020 09:00:18 7.7 C 64 %
200 26-03-2020 09:10:18 7.7 C 64 %
Sensor: Nr:Datum:Temp:Feuchte:
G-T/H 201 26-03-2020 09:20:18 7.7 C 64 %
202 26-03-2020 09:30:18 7.7 C 64 %
203 26-03-2020 09:40:18 7.7 C 64 %
204 26-03-2020 09:50:18 7.6 C 64 %
205 26-03-2020 10:00:18 7.7 C 64 %
206 26-03-2020 10:10:18 7.7 C 64 %
207 26-03-2020 10:20:18 7.6 C 64 %
208 26-03-2020 10:30:18 7.7 C 64 %
209 26-03-2020 10:40:18 7.7 C 64 %
210 26-03-2020 10:50:17 7.6 C 64 %
211 26-03-2020 11:00:18 7.6 C 64 %
212 26-03-2020 11:10:18 7.6 C 64 %
213 26-03-2020 11:20:18 7.6 C 64 %
214 26-03-2020 11:30:18 7.6 C 64 %
215 26-03-2020 11:40:18 7.6 C 64 %
216 26-03-2020 11:50:18 7.7 C 64 %
217 26-03-2020 12:00:18 7.6 C 64 %
218 26-03-2020 12:10:18 7.7 C 64 %
219 26-03-2020 12:20:17 7.7 C 64 %
220 26-03-2020 12:30:17 7.7 C 64 %
221 26-03-2020 12:40:17 7.7 C 64 %
222 26-03-2020 12:50:17 7.7 C 64 %
223 26-03-2020 13:00:17 7.7 C 64 %
224 26-03-2020 13:10:17 7.7 C 63 %
225 26-03-2020 13:20:18 7.8 C 63 %
Sensor: Nr:Datum:Temp:Feuchte:
G-T/H 226 26-03-2020 13:30:18 7.8 C 63 %
227 26-03-2020 13:40:18 7.8 C 63 %
228 26-03-2020 13:50:18 7.8 C 63 %
229 26-03-2020 14:00:18 7.8 C 63 %
230 26-03-2020 14:10:18 7.8 C 63 %
231 26-03-2020 14:20:18 7.8 C 63 %
232 26-03-2020 14:30:18 7.9 C 63 %
233 26-03-2020 14:40:18 7.9 C 64 %
234 26-03-2020 14:50:17 7.9 C 64 %
235 26-03-2020 15:00:17 7.9 C 64 %
236 26-03-2020 15:10:18 7.9 C 64 %
237 26-03-2020 15:20:18 8 C 63 %
238 26-03-2020 15:30:18 8 C 63 %
239 26-03-2020 15:40:18 8 C 63 %
240 26-03-2020 15:50:18 8 C 63 %
241 26-03-2020 16:00:18 8 C 63 %
242 26-03-2020 16:10:18 8.1 C 63 %
243 26-03-2020 16:20:18 8.1 C 63 %
244 26-03-2020 16:30:18 8.1 C 63 %
245 26-03-2020 16:40:18 8.1 C 64 %
246 26-03-2020 16:50:18 8.1 C 64 %
247 26-03-2020 17:00:18 8.1 C 64 %
248 26-03-2020 17:10:18 8.2 C 64 %
249 26-03-2020 17:20:17 8.2 C 64 %
250 26-03-2020 17:30:17 8.2 C 63 %
Sensor: Nr:Datum:Temp:Feuchte:
G-T/H 251 26-03-2020 17:40:17 8.3 C 63 %
252 26-03-2020 17:50:17 8.3 C 63 %
253 26-03-2020 18:00:17 8.3 C 64 %
254 26-03-2020 18:10:17 8.3 C 63 %
255 26-03-2020 18:20:18 8.3 C 63 %
256 26-03-2020 18:30:18 8.3 C 63 %
257 26-03-2020 18:40:18 8.4 C 64 %
258 26-03-2020 18:50:17 8.4 C 64 %
259 26-03-2020 19:00:17 8.4 C 64 %
260 26-03-2020 19:10:17 8.4 C 64 %
261 26-03-2020 19:20:17 8.4 C 64 %
262 26-03-2020 19:30:17 8.4 C 64 %
263 26-03-2020 19:40:17 8.4 C 65 %
264 26-03-2020 19:50:17 8.4 C 65 %
265 26-03-2020 20:00:17 8.4 C 65 %
266 26-03-2020 20:10:18 8.5 C 65 %
267 26-03-2020 20:20:18 8.5 C 65 %
268 26-03-2020 20:30:17 8.5 C 65 %
269 26-03-2020 20:40:17 8.5 C 65 %
270 26-03-2020 20:50:17 8.5 C 65 %
271 26-03-2020 21:00:17 8.5 C 65 %
272 26-03-2020 21:10:17 8.5 C 65 %
273 26-03-2020 21:20:17 8.5 C 65 %
274 26-03-2020 21:30:18 8.5 C 65 %
275 26-03-2020 21:40:18 8.6 C 65 %
Sensor: Nr:Datum:Temp:Feuchte:
G-T/H 276 26-03-2020 21:50:18 8.5 C 66 %
277 26-03-2020 22:00:18 8.6 C 66 %
278 26-03-2020 22:10:18 8.6 C 66 %
279 26-03-2020 22:20:17 8.6 C 66 %
280 26-03-2020 22:30:17 8.6 C 66 %
281 26-03-2020 22:40:17 8.6 C 66 %
282 26-03-2020 22:50:17 8.6 C 66 %
283 26-03-2020 23:00:18 8.6 C 66 %
284 26-03-2020 23:10:18 8.6 C 66 %
285 26-03-2020 23:20:17 8.6 C 66 %
286 26-03-2020 23:30:18 8.6 C 66 %
287 26-03-2020 23:40:18 8.6 C 66 %
288 26-03-2020 23:50:18 8.6 C 66 %
289 27-03-2020 00:00:18 8.6 C 66 %
290 27-03-2020 00:10:18 8.6 C 66 %
291 27-03-2020 00:20:17 8.6 C 66 %
292 27-03-2020 00:30:17 8.6 C 66 %
293 27-03-2020 00:40:17 8.6 C 66 %
294 27-03-2020 00:50:18 8.6 C 66 %
295 27-03-2020 01:00:18 8.6 C 66 %
296 27-03-2020 01:10:18 8.6 C 66 %
297 27-03-2020 01:20:17 8.6 C 66 %
298 27-03-2020 01:30:18 8.6 C 66 %
299 27-03-2020 01:40:18 8.6 C 66 %
300 27-03-2020 01:50:18 8.6 C 66 %
Sensor: Nr:Datum:Temp:Feuchte:
G-T/H 301 27-03-2020 02:00:18 8.6 C 66 %
302 27-03-2020 02:10:18 8.6 C 66 %
303 27-03-2020 02:20:17 8.6 C 66 %
304 27-03-2020 02:30:17 8.6 C 66 %
305 27-03-2020 02:40:17 8.6 C 66 %
306 27-03-2020 02:50:17 8.5 C 66 %
307 27-03-2020 03:00:17 8.6 C 66 %
308 27-03-2020 03:10:17 8.6 C 66 %
309 27-03-2020 03:20:17 8.6 C 66 %
310 27-03-2020 03:30:17 8.5 C 66 %
311 27-03-2020 03:40:17 8.5 C 66 %
312 27-03-2020 03:50:17 8.5 C 66 %
313 27-03-2020 04:00:18 8.5 C 66 %
314 27-03-2020 04:10:18 8.5 C 66 %
315 27-03-2020 04:20:18 8.5 C 66 %
316 27-03-2020 04:30:18 8.5 C 66 %
317 27-03-2020 04:40:18 8.5 C 66 %
318 27-03-2020 04:50:17 8.5 C 66 %
319 27-03-2020 05:00:18 8.5 C 66 %
320 27-03-2020 05:10:18 8.5 C 66 %
321 27-03-2020 05:20:18 8.5 C 66 %
322 27-03-2020 05:30:18 8.5 C 66 %
323 27-03-2020 05:40:18 8.5 C 66 %
324 27-03-2020 05:50:18 8.4 C 66 %
325 27-03-2020 06:00:18 8.5 C 66 %
Sensor: Nr:Datum:Temp:Feuchte:
G-T/H 326 27-03-2020 06:10:18 8.4 C 66 %
327 27-03-2020 06:20:18 8.4 C 66 %
328 27-03-2020 06:30:18 8.4 C 66 %
329 27-03-2020 06:40:18 8.4 C 66 %
330 27-03-2020 06:50:17 8.4 C 66 %
331 27-03-2020 07:00:18 8.4 C 66 %
332 27-03-2020 07:10:18 8.4 C 66 %
333 27-03-2020 07:20:18 8.4 C 65 %
334 27-03-2020 07:30:18 8.3 C 65 %
335 27-03-2020 07:40:18 8.4 C 66 %
336 27-03-2020 07:50:17 8.3 C 66 %
337 27-03-2020 08:00:17 8.3 C 66 %
338 27-03-2020 08:10:18 8.3 C 66 %
339 27-03-2020 08:20:18 8.3 C 66 %
340 27-03-2020 08:30:18 8.3 C 66 %
341 27-03-2020 08:40:18 8.3 C 66 %
342 27-03-2020 08:50:17 8.3 C 66 %
343 27-03-2020 09:00:18 8.3 C 66 %
344 27-03-2020 09:10:18 8.3 C 66 %
345 27-03-2020 09:20:17 8.2 C 66 %
346 27-03-2020 09:30:18 8.2 C 66 %
347 27-03-2020 09:40:18 8.3 C 66 %
348 27-03-2020 09:50:18 8.3 C 66 %
349 27-03-2020 10:00:18 8.2 C 66 %
350 27-03-2020 10:10:18 8.2 C 66 %
Sensor: Nr:Datum:Temp:Feuchte:
G-T/H 351 27-03-2020 10:20:17 8.3 C 66 %
352 27-03-2020 10:30:17 8.3 C 66 %
353 27-03-2020 10:40:17 8.3 C 66 %
354 27-03-2020 10:50:17 8.3 C 67 %
355 27-03-2020 11:00:17 8.3 C 67 %
356 27-03-2020 11:10:17 8.3 C 67 %
357 27-03-2020 11:20:17 8.3 C 67 %
358 27-03-2020 11:30:17 8.3 C 67 %
359 27-03-2020 11:40:17 8.3 C 67 %
360 27-03-2020 11:50:17 8.3 C 67 %
361 27-03-2020 12:00:17 8.3 C 67 %
362 27-03-2020 12:10:17 8.3 C 67 %
363 27-03-2020 12:20:17 8.4 C 67 %
364 27-03-2020 12:30:17 8.4 C 67 %
365 27-03-2020 12:40:18 8.4 C 67 %
366 27-03-2020 12:50:18 8.5 C 67 %
367 27-03-2020 13:00:18 8.4 C 67 %
368 27-03-2020 13:10:18 8.5 C 67 %
369 27-03-2020 13:20:17 8.5 C 67 %
370 27-03-2020 13:30:18 8.6 C 67 %
371 27-03-2020 13:40:18 8.6 C 67 %
372 27-03-2020 13:50:18 8.6 C 67 %
373 27-03-2020 14:00:18 8.7 C 67 %
374 27-03-2020 14:10:18 8.7 C 67 %
375 27-03-2020 14:20:18 8.7 C 67 %
Sensor: Nr:Datum:Temp:Feuchte:
G-T/H 376 27-03-2020 14:30:17 8.8 C 67 %
377 27-03-2020 14:40:17 8.8 C 67 %
378 27-03-2020 14:50:17 8.8 C 67 %
379 27-03-2020 15:00:17 8.9 C 67 %
380 27-03-2020 15:10:17 9.4 C 64 %
381 27-03-2020 15:20:17 9.7 C 61 %
382 27-03-2020 15:30:18 9.9 C 59 %
383 27-03-2020 15:40:18 10.1 C 56 %
384 27-03-2020 15:50:17 10.2 C 55 %
385 27-03-2020 16:00:17 10.4 C 54 %
386 27-03-2020 16:10:17 10.5 C 53 %
387 27-03-2020 16:20:17 10.6 C 53 %
388 27-03-2020 16:30:17 10.7 C 52 %
389 27-03-2020 16:40:17 10.8 C 52 %
390 27-03-2020 16:50:17 10.9 C 51 %
391 27-03-2020 17:00:18 11 C 50 %
392 27-03-2020 17:10:18 11.1 C 50 %
393 27-03-2020 17:20:18 11.2 C 49 %
394 27-03-2020 17:30:18 11.2 C 49 %
395 27-03-2020 17:40:18 11.3 C 49 %
396 27-03-2020 17:50:18 11.4 C 48 %
397 27-03-2020 18:00:17 11.4 C 49 %
398 27-03-2020 18:10:17 11.5 C 48 %
399 27-03-2020 18:20:17 11.5 C 49 %
400 27-03-2020 18:30:18 11.4 C 49 %
Sensor: Nr:Datum:Temp:Feuchte:
G-T/H 401 27-03-2020 18:40:18 11.3 C 50 %
402 27-03-2020 18:50:18 11.2 C 51 %
403 27-03-2020 19:00:18 11.1 C 52 %
404 27-03-2020 19:10:18 11 C 52 %
405 27-03-2020 19:20:17 11 C 52 %
406 27-03-2020 19:30:17 10.9 C 53 %
407 27-03-2020 19:40:17 10.8 C 53 %
408 27-03-2020 19:50:17 10.6 C 53 %
409 27-03-2020 20:00:18 10.6 C 53 %
410 27-03-2020 20:10:18 10.5 C 53 %
411 27-03-2020 20:20:17 10.5 C 53 %
412 27-03-2020 20:30:17 10.4 C 53 %
413 27-03-2020 20:40:17 10.4 C 54 %
414 27-03-2020 20:50:18 10.4 C 54 %
415 27-03-2020 21:00:17 10.2 C 54 %
416 27-03-2020 21:10:17 10.2 C 54 %
417 27-03-2020 21:20:17 10.1 C 54 %
418 27-03-2020 21:30:17 10 C 54 %
419 27-03-2020 21:40:17 9.9 C 54 %
420 27-03-2020 21:50:17 9.8 C 54 %
421 27-03-2020 22:00:17 9.7 C 54 %
422 27-03-2020 22:10:17 9.6 C 54 %
423 27-03-2020 22:20:17 9.6 C 54 %
424 27-03-2020 22:30:18 9.5 C 54 %
425 27-03-2020 22:40:18 9.4 C 54 %
Sensor: Nr:Datum:Temp:Feuchte:
G-T/H 426 27-03-2020 22:50:18 9.7 C 55 %
427 27-03-2020 23:00:18 9.8 C 55 %
428 27-03-2020 23:10:18 9.9 C 56 %
429 27-03-2020 23:20:17 9.9 C 56 %
430 27-03-2020 23:30:17 9.9 C 56 %
431 27-03-2020 23:40:17 10 C 56 %
432 27-03-2020 23:50:17 10 C 56 %
433 28-03-2020 00:00:17 10 C 57 %
434 28-03-2020 00:10:17 10 C 57 %
435 28-03-2020 00:20:17 10 C 58 %
436 28-03-2020 00:30:18 10.1 C 58 %
437 28-03-2020 00:40:18 10.1 C 58 %
438 28-03-2020 00:50:17 10 C 58 %
439 28-03-2020 01:00:17 10.1 C 59 %
440 28-03-2020 01:10:17 10.1 C 59 %
441 28-03-2020 01:20:17 10.1 C 59 %
442 28-03-2020 01:30:17 10.1 C 59 %
443 28-03-2020 01:40:18 10.1 C 59 %
444 28-03-2020 01:50:17 10.1 C 60 %
445 28-03-2020 02:00:18 10.1 C 60 %
446 28-03-2020 02:10:18 10.1 C 60 %
447 28-03-2020 02:20:18 10 C 60 %
448 28-03-2020 02:30:17 10 C 60 %
449 28-03-2020 02:40:17 10 C 60 %
450 28-03-2020 02:50:18 10.1 C 60 %
Sensor: Nr:Datum:Temp:Feuchte:
G-T/H 451 28-03-2020 03:00:18 10 C 60 %
452 28-03-2020 03:10:18 10 C 60 %
453 28-03-2020 03:20:17 10 C 60 %
454 28-03-2020 03:30:18 10 C 61 %
455 28-03-2020 03:40:18 10 C 61 %
456 28-03-2020 03:50:17 10 C 61 %
457 28-03-2020 04:00:18 10 C 61 %
458 28-03-2020 04:10:18 10 C 61 %
459 28-03-2020 04:20:18 10 C 61 %
460 28-03-2020 04:30:18 10 C 61 %
461 28-03-2020 04:40:18 10 C 61 %
462 28-03-2020 04:50:17 10 C 61 %
463 28-03-2020 05:00:18 9.9 C 62 %
464 28-03-2020 05:10:18 9.9 C 62 %
465 28-03-2020 05:20:17 9.9 C 62 %
466 28-03-2020 05:30:18 9.9 C 62 %
467 28-03-2020 05:40:18 9.8 C 62 %
468 28-03-2020 05:50:18 9.8 C 62 %
469 28-03-2020 06:00:18 9.8 C 62 %
470 28-03-2020 06:10:18 9.8 C 62 %
471 28-03-2020 06:20:17 9.8 C 62 %
472 28-03-2020 06:30:17 9.8 C 62 %
473 28-03-2020 06:40:17 9.8 C 62 %
474 28-03-2020 06:50:17 9.8 C 62 %
475 28-03-2020 07:00:17 9.8 C 62 %
Sensor: Nr:Datum:Temp:Feuchte:
G-T/H 476 28-03-2020 07:10:17 9.8 C 62 %
477 28-03-2020 07:20:17 9.7 C 62 %
478 28-03-2020 07:30:18 9.7 C 62 %
479 28-03-2020 07:40:18 9.7 C 62 %
480 28-03-2020 07:50:17 9.7 C 62 %
481 28-03-2020 08:00:17 9.7 C 62 %
482 28-03-2020 08:10:18 9.7 C 63 %
483 28-03-2020 08:20:18 9.7 C 63 %
484 28-03-2020 08:30:17 9.7 C 63 %
485 28-03-2020 08:40:17 9.6 C 63 %
486 28-03-2020 08:50:18 9.7 C 63 %
487 28-03-2020 09:00:18 9.6 C 63 %
488 28-03-2020 09:10:18 9.7 C 63 %
489 28-03-2020 09:20:17 9.6 C 63 %
490 28-03-2020 09:30:18 9.6 C 63 %
491 28-03-2020 09:40:18 9.6 C 63 %
492 28-03-2020 09:50:18 9.6 C 63 %
493 28-03-2020 10:00:18 9.6 C 63 %
494 28-03-2020 10:10:18 9.6 C 63 %
495 28-03-2020 10:20:17 9.6 C 64 %
496 28-03-2020 10:30:17 9.6 C 64 %
497 28-03-2020 10:40:17 9.6 C 64 %
498 28-03-2020 10:50:18 9.6 C 64 %
499 28-03-2020 11:00:18 9.6 C 64 %
500 28-03-2020 11:10:18 9.6 C 64 %
Sensor: Nr:Datum:Temp:Feuchte:
G-T/H 501 28-03-2020 11:20:17 9.6 C 64 %
502 28-03-2020 11:30:17 9.6 C 64 %
503 28-03-2020 11:40:17 9.6 C 64 %
504 28-03-2020 11:50:18 9.6 C 64 %
505 28-03-2020 12:00:17 9.7 C 64 %
506 28-03-2020 12:10:17 9.8 C 64 %
507 28-03-2020 12:20:17 9.8 C 64 %
508 28-03-2020 12:30:17 9.8 C 64 %
509 28-03-2020 12:40:17 9.8 C 64 %
510 28-03-2020 12:50:18 9.8 C 64 %
511 28-03-2020 13:00:18 9.8 C 64 %
512 28-03-2020 13:10:18 9.9 C 64 %
513 28-03-2020 13:20:18 10.6 C 62 %
514 28-03-2020 13:30:17 11 C 59 %
515 28-03-2020 13:40:17 11.2 C 57 %
516 28-03-2020 13:50:18 11.4 C 56 %
517 28-03-2020 14:00:17 11.5 C 56 %
518 28-03-2020 14:10:17 11.7 C 55 %
519 28-03-2020 14:20:17 11.9 C 54 %
520 28-03-2020 14:30:17 11.9 C 53 %
521 28-03-2020 14:40:17 12.1 C 52 %
522 28-03-2020 14:50:17 12.2 C 52 %
523 28-03-2020 15:00:18 12.3 C 51 %
524 28-03-2020 15:10:18 12.4 C 49 %
525 28-03-2020 15:20:18 12.4 C 49 %
Sensor: Nr:Datum:Temp:Feuchte:
G-T/H 526 28-03-2020 15:30:18 11.9 C 50 %
527 28-03-2020 15:40:18 11.9 C 51 %
528 28-03-2020 15:50:18 12.1 C 50 %
529 28-03-2020 16:00:18 11.8 C 51 %
530 28-03-2020 16:10:18 11.6 C 52 %
531 28-03-2020 16:20:18 11.5 C 53 %
532 28-03-2020 16:30:18 11.4 C 54 %
533 28-03-2020 16:40:18 11.4 C 55 %
534 28-03-2020 16:50:18 11.3 C 55 %
535 28-03-2020 17:00:18 11.3 C 56 %
536 28-03-2020 17:10:18 11.3 C 56 %
537 28-03-2020 17:20:18 11.2 C 56 %
538 28-03-2020 17:30:18 11.2 C 57 %
539 28-03-2020 17:40:18 11.2 C 57 %
540 28-03-2020 17:50:17 11.2 C 57 %
541 28-03-2020 18:00:18 11.2 C 57 %
542 28-03-2020 18:10:18 11.2 C 57 %
543 28-03-2020 18:20:17 11.2 C 58 %
544 28-03-2020 18:30:17 11.1 C 58 %
545 28-03-2020 18:40:17 11.1 C 58 %
546 28-03-2020 18:50:18 11.1 C 58 %
547 28-03-2020 19:00:18 11.1 C 58 %
548 28-03-2020 19:10:18 11.1 C 58 %
549 28-03-2020 19:20:18 11.1 C 58 %
550 28-03-2020 19:30:18 11.1 C 58 %
Sensor: Nr:Datum:Temp:Feuchte:
G-T/H 551 28-03-2020 19:40:18 11.1 C 58 %
552 28-03-2020 19:50:17 11.1 C 59 %
553 28-03-2020 20:00:18 11.1 C 59 %
554 28-03-2020 20:10:18 11.1 C 59 %
555 28-03-2020 20:20:17 11.1 C 59 %
556 28-03-2020 20:30:18 11.1 C 59 %
557 28-03-2020 20:40:18 11 C 59 %
558 28-03-2020 20:50:17 11 C 59 %
559 28-03-2020 21:00:17 11.1 C 60 %
560 28-03-2020 21:10:17 11 C 60 %
561 28-03-2020 21:20:17 11 C 60 %
562 28-03-2020 21:30:17 11 C 60 %
563 28-03-2020 21:40:17 11 C 60 %
564 28-03-2020 21:50:17 11 C 60 %
565 28-03-2020 22:00:17 11 C 60 %
566 28-03-2020 22:10:17 11 C 60 %
567 28-03-2020 22:20:17 11 C 61 %
568 28-03-2020 22:30:17 11 C 61 %
569 28-03-2020 22:40:17 11 C 61 %
570 28-03-2020 22:50:17 11 C 61 %
571 28-03-2020 23:00:17 11 C 61 %
572 28-03-2020 23:10:17 11 C 61 %
573 28-03-2020 23:20:18 11 C 61 %
574 28-03-2020 23:30:18 10.9 C 62 %
575 28-03-2020 23:40:18 10.9 C 62 %
Sensor: Nr:Datum:Temp:Feuchte:
G-T/H 576 28-03-2020 23:50:17 10.9 C 62 %
577 29-03-2020 00:00:18 10.9 C 62 %
578 29-03-2020 00:10:18 10.9 C 62 %
579 29-03-2020 00:20:17 10.9 C 62 %
580 29-03-2020 00:30:17 10.9 C 62 %
581 29-03-2020 00:40:17 10.9 C 62 %
582 29-03-2020 00:50:18 10.9 C 62 %
583 29-03-2020 01:00:18 10.9 C 62 %
584 29-03-2020 01:10:18 10.9 C 62 %
585 29-03-2020 01:20:17 10.8 C 62 %
586 29-03-2020 01:30:17 10.8 C 62 %
587 29-03-2020 01:40:17 10.8 C 62 %
588 29-03-2020 01:50:17 10.8 C 62 %
589 29-03-2020 02:00:17 10.8 C 62 %
590 29-03-2020 02:10:17 10.8 C 62 %
591 29-03-2020 02:20:18 10.8 C 62 %
592 29-03-2020 02:30:18 10.8 C 62 %
593 29-03-2020 02:40:18 10.7 C 62 %
594 29-03-2020 02:50:18 10.7 C 62 %
595 29-03-2020 04:00:18 10.7 C 62 %
596 29-03-2020 04:10:18 10.7 C 62 %
597 29-03-2020 04:20:17 10.7 C 61 %
598 29-03-2020 04:30:17 10.6 C 61 %
599 29-03-2020 04:40:17 10.6 C 61 %
600 29-03-2020 04:50:18 10.6 C 61 %
Sensor: Nr:Datum:Temp:Feuchte:
G-T/H 601 29-03-2020 05:00:17 10.6 C 61 %
602 29-03-2020 05:10:17 10.5 C 60 %
603 29-03-2020 05:20:17 10.5 C 60 %
604 29-03-2020 05:30:17 10.5 C 60 %
605 29-03-2020 05:40:17 10.5 C 60 %
606 29-03-2020 05:50:18 10.5 C 60 %
607 29-03-2020 06:00:18 10.5 C 60 %
608 29-03-2020 06:10:18 10.5 C 60 %
609 29-03-2020 06:20:17 10.5 C 60 %
610 29-03-2020 06:30:18 10.4 C 60 %
611 29-03-2020 06:40:18 10.4 C 60 %
612 29-03-2020 06:50:17 10.4 C 60 %
613 29-03-2020 07:00:18 10.4 C 60 %
614 29-03-2020 07:10:18 10.4 C 60 %
615 29-03-2020 07:20:17 10.4 C 60 %
616 29-03-2020 07:30:17 10.4 C 60 %
617 29-03-2020 07:40:17 10.3 C 61 %
618 29-03-2020 07:50:17 10.4 C 61 %
619 29-03-2020 08:00:18 10.3 C 61 %
620 29-03-2020 08:10:18 10.3 C 61 %
621 29-03-2020 08:20:17 10.3 C 60 %
622 29-03-2020 08:30:17 10.2 C 60 %
623 29-03-2020 08:40:17 10.2 C 60 %
624 29-03-2020 08:50:17 10.2 C 60 %
625 29-03-2020 09:00:17 10.2 C 60 %
Sensor: Nr:Datum:Temp:Feuchte:
G-T/H 626 29-03-2020 09:10:17 10.2 C 60 %
627 29-03-2020 09:20:17 10.2 C 60 %
628 29-03-2020 09:30:17 10.2 C 60 %
629 29-03-2020 09:40:17 10.2 C 60 %
630 29-03-2020 09:50:17 10.2 C 60 %
631 29-03-2020 10:00:17 10.1 C 60 %
632 29-03-2020 10:10:17 10.1 C 60 %
633 29-03-2020 10:20:17 10.1 C 60 %
634 29-03-2020 10:30:18 10.1 C 60 %
635 29-03-2020 10:40:18 10.1 C 60 %
636 29-03-2020 10:50:17 10.1 C 60 %
637 29-03-2020 11:00:18 10.1 C 60 %
638 29-03-2020 11:10:18 10.1 C 60 %
639 29-03-2020 11:20:18 10 C 60 %
640 29-03-2020 11:30:18 10 C 60 %
641 29-03-2020 11:40:18 10 C 60 %
642 29-03-2020 11:50:17 10 C 60 %
643 29-03-2020 12:00:17 10 C 60 %
644 29-03-2020 12:10:17 10 C 60 %
645 29-03-2020 12:20:17 10 C 60 %
646 29-03-2020 12:30:17 10 C 60 %
647 29-03-2020 12:40:17 10 C 60 %
648 29-03-2020 12:50:18 10 C 59 %
649 29-03-2020 13:00:18 10 C 59 %
650 29-03-2020 13:10:18 9.9 C 60 %
Sensor: Nr:Datum:Temp:Feuchte:
G-T/H 651 29-03-2020 13:20:17 9.9 C 60 %
652 29-03-2020 13:30:17 9.9 C 60 %
653 29-03-2020 13:40:18 9.9 C 60 %
654 29-03-2020 13:50:17 9.9 C 60 %
655 29-03-2020 14:00:18 9.9 C 60 %
656 29-03-2020 14:10:18 9.9 C 60 %
657 29-03-2020 14:20:17 9.9 C 60 %
658 29-03-2020 14:30:17 9.9 C 60 %
659 29-03-2020 14:40:17 9.9 C 60 %
660 29-03-2020 14:50:17 9.9 C 60 %
661 29-03-2020 15:00:17 9.9 C 60 %
662 29-03-2020 15:10:17 9.9 C 60 %
663 29-03-2020 15:20:17 9.9 C 60 %
664 29-03-2020 15:30:18 9.9 C 60 %
665 29-03-2020 15:40:18 9.9 C 60 %
666 29-03-2020 15:50:17 9.9 C 60 %
667 29-03-2020 16:00:18 9.9 C 60 %
668 29-03-2020 16:10:18 9.9 C 60 %
669 29-03-2020 16:20:17 9.9 C 60 %
670 29-03-2020 16:30:18 9.9 C 60 %
671 29-03-2020 16:40:18 9.9 C 60 %
672 29-03-2020 16:50:18 9.9 C 60 %
673 29-03-2020 17:00:18 9.9 C 60 %
674 29-03-2020 17:10:18 9.9 C 60 %
675 29-03-2020 17:20:17 9.9 C 60 %
Sensor: Nr:Datum:Temp:Feuchte:
G-T/H 676 29-03-2020 17:30:17 9.9 C 60 %
677 29-03-2020 17:40:17 9.9 C 60 %
678 29-03-2020 17:50:18 9.9 C 60 %
679 29-03-2020 18:00:18 9.9 C 60 %
680 29-03-2020 18:10:18 9.9 C 60 %
681 29-03-2020 18:20:18 9.9 C 60 %
682 29-03-2020 18:30:18 9.9 C 60 %
683 29-03-2020 18:40:18 9.9 C 60 %
684 29-03-2020 18:50:18 9.9 C 60 %
685 29-03-2020 19:00:18 9.9 C 60 %
686 29-03-2020 19:10:18 9.9 C 60 %
687 29-03-2020 19:20:17 9.9 C 60 %
688 29-03-2020 19:30:17 9.9 C 60 %
689 29-03-2020 19:40:17 9.9 C 60 %
690 29-03-2020 19:50:17 9.9 C 60 %
691 29-03-2020 20:00:17 9.8 C 60 %
692 29-03-2020 20:10:17 9.8 C 61 %
693 29-03-2020 20:20:18 9.8 C 61 %
694 29-03-2020 20:30:18 9.8 C 61 %
695 29-03-2020 20:40:18 9.8 C 61 %
696 29-03-2020 20:50:18 9.8 C 61 %
697 29-03-2020 21:00:18 9.8 C 61 %
698 29-03-2020 21:10:18 9.8 C 61 %
699 29-03-2020 21:20:18 9.8 C 61 %
700 29-03-2020 21:30:17 9.8 C 61 %
Sensor: Nr:Datum:Temp:Feuchte:
G-T/H 701 29-03-2020 21:40:17 9.8 C 62 %
702 29-03-2020 21:50:17 9.8 C 62 %
703 29-03-2020 22:00:17 9.8 C 62 %
704 29-03-2020 22:10:17 9.8 C 62 %
705 29-03-2020 22:20:18 9.8 C 61 %
706 29-03-2020 22:30:18 9.7 C 61 %
707 29-03-2020 22:40:18 9.7 C 61 %
708 29-03-2020 22:50:18 9.7 C 61 %
709 29-03-2020 23:00:18 9.7 C 61 %
710 29-03-2020 23:10:18 9.7 C 61 %
711 29-03-2020 23:20:17 9.7 C 61 %
712 29-03-2020 23:30:17 9.7 C 61 %
713 29-03-2020 23:40:17 9.6 C 61 %
714 29-03-2020 23:50:17 9.6 C 61 %
715 30-03-2020 00:00:18 9.6 C 61 %
716 30-03-2020 00:10:18 9.6 C 60 %
717 30-03-2020 00:20:17 9.6 C 60 %
718 30-03-2020 00:30:17 9.6 C 60 %
719 30-03-2020 00:40:17 9.6 C 60 %
720 30-03-2020 00:50:17 9.5 C 60 %
721 30-03-2020 01:00:18 9.5 C 60 %
722 30-03-2020 01:10:18 9.5 C 61 %
723 30-03-2020 01:20:17 9.5 C 61 %
724 30-03-2020 01:30:18 9.5 C 61 %
725 30-03-2020 01:40:18 9.5 C 61 %
Sensor: Nr:Datum:Temp:Feuchte:
G-T/H 726 30-03-2020 01:50:17 9.4 C 61 %
727 30-03-2020 02:00:17 9.4 C 61 %
728 30-03-2020 02:10:17 9.4 C 61 %
729 30-03-2020 02:20:17 9.4 C 61 %
730 30-03-2020 02:30:18 9.4 C 61 %
731 30-03-2020 02:40:18 9.3 C 61 %
732 30-03-2020 02:50:17 9.3 C 61 %
733 30-03-2020 03:00:18 9.3 C 61 %
734 30-03-2020 03:10:18 9.3 C 61 %
735 30-03-2020 03:20:18 9.3 C 61 %
736 30-03-2020 03:30:18 9.3 C 61 %
737 30-03-2020 03:40:18 9.2 C 61 %
738 30-03-2020 03:50:17 9.2 C 61 %
739 30-03-2020 04:00:18 9.2 C 61 %
740 30-03-2020 04:10:18 9.1 C 61 %
741 30-03-2020 04:20:17 9.2 C 60 %
742 30-03-2020 04:30:17 9.2 C 60 %
743 30-03-2020 04:40:17 9.1 C 60 %
744 30-03-2020 04:50:17 9.1 C 60 %
745 30-03-2020 05:00:17 9 C 60 %
746 30-03-2020 05:10:17 9 C 60 %
747 30-03-2020 05:20:17 9 C 60 %
748 30-03-2020 05:30:18 9 C 60 %
749 30-03-2020 05:40:18 9 C 60 %
750 30-03-2020 05:50:17 9 C 60 %
Sensor: Nr:Datum:Temp:Feuchte:
G-T/H 751 30-03-2020 06:00:18 8.9 C 61 %
752 30-03-2020 06:10:18 8.9 C 61 %
753 30-03-2020 06:20:17 8.9 C 61 %
754 30-03-2020 06:30:17 8.8 C 61 %
755 30-03-2020 06:40:17 8.9 C 61 %
756 30-03-2020 06:50:17 8.8 C 61 %
757 30-03-2020 07:00:17 8.7 C 61 %
758 30-03-2020 07:10:17 8.7 C 61 %
759 30-03-2020 07:20:17 8.7 C 61 %
760 30-03-2020 07:30:18 8.7 C 60 %
761 30-03-2020 07:40:18 8.7 C 60 %
762 30-03-2020 07:50:17 8.7 C 60 %
763 30-03-2020 08:00:18 8.6 C 60 %
764 30-03-2020 08:10:18 8.6 C 60 %
765 30-03-2020 08:20:18 8.6 C 60 %
766 30-03-2020 08:30:18 8.5 C 60 %
767 30-03-2020 08:40:18 8.5 C 60 %
768 30-03-2020 08:50:17 8.5 C 60 %
769 30-03-2020 09:00:18 8.5 C 60 %
770 30-03-2020 09:10:18 8.5 C 60 %
771 30-03-2020 09:20:18 8.5 C 60 %
772 30-03-2020 09:30:18 8.5 C 60 %
773 30-03-2020 09:40:18 8.4 C 60 %
774 30-03-2020 09:50:18 8.4 C 60 %
775 30-03-2020 10:00:18 8.4 C 60 %
Sensor: Nr:Datum:Temp:Feuchte:
G-T/H 776 30-03-2020 10:10:18 8.4 C 60 %
777 30-03-2020 10:20:17 8.3 C 60 %
778 30-03-2020 10:30:17 8.3 C 60 %
779 30-03-2020 10:40:17 8.3 C 60 %
780 30-03-2020 10:50:17 8.3 C 60 %
781 30-03-2020 11:00:17 8.3 C 60 %
782 30-03-2020 11:10:18 8.3 C 60 %
783 30-03-2020 11:20:18 8.2 C 60 %
784 30-03-2020 11:30:18 8.2 C 60 %
785 30-03-2020 11:40:18 8.2 C 60 %
786 30-03-2020 11:50:18 8.2 C 60 %
787 30-03-2020 12:00:18 8.2 C 60 %
788 30-03-2020 12:10:18 8.2 C 60 %
789 30-03-2020 12:20:18 8.2 C 60 %
790 30-03-2020 12:30:18 8.2 C 60 %
791 30-03-2020 12:40:18 8.2 C 60 %
792 30-03-2020 12:50:18 8.2 C 60 %
793 30-03-2020 13:00:18 8.1 C 60 %
794 30-03-2020 13:10:18 8.2 C 60 %
795 30-03-2020 13:20:18 7.9 C 52 %
796 30-03-2020 13:30:17 8 C 50 %
797 30-03-2020 13:40:17 8 C 50 %
798 30-03-2020 13:50:17 8 C 51 %
799 30-03-2020 14:00:17 8 C 52 %
800 30-03-2020 14:10:17 8.1 C 53 %
Sensor: Nr:Datum:Temp:Feuchte:
G-T/H 801 30-03-2020 14:20:18 8.1 C 54 %
802 30-03-2020 14:30:18 8.1 C 54 %
803 30-03-2020 14:40:18 8.1 C 55 %
804 30-03-2020 14:50:18 8.1 C 55 %
805 30-03-2020 15:00:18 8.1 C 56 %
806 30-03-2020 15:10:18 8.1 C 56 %
807 30-03-2020 15:20:17 8.2 C 56 %
808 30-03-2020 15:30:18 8.2 C 56 %
809 30-03-2020 15:40:18 8.2 C 57 %
810 30-03-2020 15:50:18 8.2 C 57 %
811 30-03-2020 16:00:18 8.2 C 57 %
812 30-03-2020 16:10:18 8.3 C 57 %
813 30-03-2020 16:20:17 8.3 C 57 %
814 30-03-2020 16:30:18 8.3 C 58 %
815 30-03-2020 16:40:18 8.3 C 58 %
816 30-03-2020 16:50:18 8.3 C 58 %
817 30-03-2020 17:00:17 8.3 C 58 %
818 30-03-2020 17:10:17 8.3 C 58 %
819 30-03-2020 17:20:18 8.4 C 58 %
820 30-03-2020 17:30:18 8.4 C 58 %
821 30-03-2020 17:40:18 8.4 C 58 %
822 30-03-2020 17:50:18 8.4 C 58 %
823 30-03-2020 18:00:18 8.4 C 59 %
824 30-03-2020 18:10:18 8.4 C 59 %
825 30-03-2020 18:20:18 8.4 C 59 %
Sensor: Nr:Datum:Temp:Feuchte:
G-T/H 826 30-03-2020 18:30:18 8.5 C 59 %
827 30-03-2020 18:40:18 8.4 C 59 %
828 30-03-2020 18:50:18 8.4 C 59 %
829 30-03-2020 19:00:18 8.4 C 60 %
830 30-03-2020 19:10:18 8.5 C 60 %
831 30-03-2020 19:20:17 8.5 C 60 %
832 30-03-2020 19:30:18 8.5 C 60 %
833 30-03-2020 19:40:18 8.5 C 60 %
834 30-03-2020 19:50:17 8.5 C 60 %
835 30-03-2020 20:00:18 8.5 C 60 %
836 30-03-2020 20:10:18 8.5 C 60 %
837 30-03-2020 20:20:17 8.5 C 61 %
838 30-03-2020 20:30:18 8.5 C 61 %
839 30-03-2020 20:40:18 8.5 C 61 %
840 30-03-2020 20:50:18 8.5 C 61 %
841 30-03-2020 21:00:18 8.5 C 61 %
842 30-03-2020 21:10:18 8.5 C 61 %
843 30-03-2020 21:20:18 8.5 C 61 %
844 30-03-2020 21:30:18 8.5 C 61 %
845 30-03-2020 21:40:18 8.5 C 61 %
846 30-03-2020 21:50:18 8.5 C 61 %
847 30-03-2020 22:00:18 8.5 C 62 %
848 30-03-2020 22:10:18 8.5 C 62 %
849 30-03-2020 22:20:17 8.5 C 62 %
850 30-03-2020 22:30:18 8.5 C 62 %
Sensor: Nr:Datum:Temp:Feuchte:
G-T/H 851 30-03-2020 22:40:18 8.5 C 62 %
852 30-03-2020 22:50:18 8.5 C 62 %
853 30-03-2020 23:00:18 8.5 C 62 %
854 30-03-2020 23:10:18 8.5 C 62 %
855 30-03-2020 23:20:18 8.5 C 62 %
856 30-03-2020 23:30:18 8.6 C 62 %
857 30-03-2020 23:40:18 8.5 C 62 %
858 30-03-2020 23:50:17 8.5 C 62 %
859 31-03-2020 00:00:18 8.5 C 62 %
860 31-03-2020 00:10:18 8.5 C 62 %
861 31-03-2020 00:20:18 8.5 C 62 %
862 31-03-2020 00:30:18 8.5 C 63 %
863 31-03-2020 00:40:18 8.6 C 63 %
864 31-03-2020 00:50:18 8.5 C 63 %
865 31-03-2020 01:00:18 8.5 C 63 %
866 31-03-2020 01:10:18 8.5 C 63 %
867 31-03-2020 01:20:18 8.6 C 63 %
868 31-03-2020 01:30:18 8.5 C 63 %
869 31-03-2020 01:40:18 8.6 C 63 %
870 31-03-2020 01:50:18 8.5 C 63 %
871 31-03-2020 02:00:18 8.5 C 63 %
872 31-03-2020 02:10:18 8.5 C 63 %
873 31-03-2020 02:20:17 8.5 C 63 %
874 31-03-2020 02:30:18 8.5 C 63 %
875 31-03-2020 02:40:18 8.5 C 63 %
Sensor: Nr:Datum:Temp:Feuchte:
G-T/H 876 31-03-2020 02:50:18 8.5 C 63 %
877 31-03-2020 03:00:18 8.5 C 64 %
878 31-03-2020 03:10:18 8.5 C 64 %
879 31-03-2020 03:20:17 8.5 C 64 %
880 31-03-2020 03:30:18 8.5 C 64 %
881 31-03-2020 03:40:18 8.5 C 64 %
882 31-03-2020 03:50:18 8.5 C 64 %
883 31-03-2020 04:00:18 8.5 C 64 %
884 31-03-2020 04:10:18 8.5 C 64 %
885 31-03-2020 04:20:18 8.5 C 64 %
886 31-03-2020 04:30:17 8.5 C 64 %
887 31-03-2020 04:40:18 8.5 C 64 %
888 31-03-2020 04:50:17 8.5 C 64 %
889 31-03-2020 05:00:18 8.5 C 64 %
890 31-03-2020 05:10:18 8.5 C 64 %
891 31-03-2020 05:20:17 8.5 C 64 %
892 31-03-2020 05:30:18 8.5 C 64 %
893 31-03-2020 05:40:18 8.5 C 64 %
894 31-03-2020 05:50:18 8.5 C 64 %
895 31-03-2020 06:00:18 8.5 C 64 %
896 31-03-2020 06:10:18 8.5 C 64 %
897 31-03-2020 06:20:18 8.5 C 64 %
898 31-03-2020 06:30:18 8.4 C 64 %
899 31-03-2020 06:40:18 8.5 C 64 %
900 31-03-2020 06:50:18 8.4 C 64 %
Sensor: Nr:Datum:Temp:Feuchte:
G-T/H 901 31-03-2020 07:00:18 8.5 C 64 %
902 31-03-2020 07:10:18 8.4 C 64 %
903 31-03-2020 07:20:18 8.4 C 64 %
904 31-03-2020 07:30:18 8.4 C 64 %
905 31-03-2020 07:40:18 8.4 C 65 %
906 31-03-2020 07:50:17 8.4 C 65 %
907 31-03-2020 08:00:18 8.4 C 65 %
908 31-03-2020 08:10:18 8.4 C 65 %
909 31-03-2020 08:20:18 8.4 C 65 %
910 31-03-2020 08:30:18 8.4 C 65 %
911 31-03-2020 08:40:18 8.4 C 65 %
912 31-03-2020 08:50:17 8.4 C 65 %
913 31-03-2020 09:00:18 8.4 C 65 %
914 31-03-2020 09:10:18 8.4 C 65 %
915 31-03-2020 09:20:18 8.4 C 65 %
916 31-03-2020 09:30:17 8.4 C 65 %
917 31-03-2020 09:40:17 8.4 C 65 %
918 31-03-2020 09:50:18 8.4 C 65 %
919 31-03-2020 10:00:18 8.4 C 65 %
920 31-03-2020 10:10:18 8.4 C 65 %
921 31-03-2020 10:20:18 8.4 C 65 %
922 31-03-2020 10:30:18 8.4 C 65 %
923 31-03-2020 10:40:18 8.4 C 64 %
924 31-03-2020 10:50:17 8.4 C 64 %
925 31-03-2020 11:00:17 8.4 C 64 %
Sensor: Nr:Datum:Temp:Feuchte:
G-T/H 926 31-03-2020 11:10:17 8.4 C 64 %
927 31-03-2020 11:20:18 8.4 C 64 %
928 31-03-2020 11:30:18 8.4 C 64 %
929 31-03-2020 11:40:18 8.4 C 64 %
930 31-03-2020 11:50:17 8.4 C 64 %
931 31-03-2020 12:00:18 8.4 C 64 %
932 31-03-2020 12:10:18 8.4 C 64 %
933 31-03-2020 12:20:17 8.4 C 64 %
934 31-03-2020 12:30:18 8.4 C 64 %
935 31-03-2020 12:40:18 8.5 C 64 %
936 31-03-2020 12:50:18 8.5 C 64 %
937 31-03-2020 13:00:17 8.5 C 64 %
938 31-03-2020 13:10:17 8.5 C 64 %
939 31-03-2020 13:20:17 8.5 C 63 %
940 31-03-2020 13:30:17 8.5 C 63 %
941 31-03-2020 13:40:17 8.4 C 63 %
942 31-03-2020 13:51:17 8.5 C 63 %
943 31-03-2020 14:00:17 8.5 C 63 %
944 31-03-2020 14:10:17 8.5 C 63 %
945 31-03-2020 14:20:17 8.5 C 63 %
946 31-03-2020 14:30:17 8.5 C 63 %
947 31-03-2020 14:40:17 8.5 C 63 %
948 31-03-2020 14:51:17 8.6 C 63 %
949 31-03-2020 15:00:17 8.6 C 63 %
950 31-03-2020 15:10:18 8.6 C 63 %
Sensor: Nr:Datum:Temp:Feuchte:
G-T/H 951 31-03-2020 15:20:17 8.6 C 63 %
952 31-03-2020 15:30:17 8.6 C 63 %
953 31-03-2020 15:40:17 8.6 C 63 %
954 31-03-2020 15:50:18 8.6 C 63 %
955 31-03-2020 16:00:17 8.6 C 63 %
956 31-03-2020 16:10:17 8.6 C 63 %
957 31-03-2020 16:20:17 8.6 C 63 %
958 31-03-2020 16:31:17 8.7 C 63 %
959 31-03-2020 16:40:17 8.7 C 63 %
960 31-03-2020 16:50:17 8.7 C 63 %
961 31-03-2020 17:00:17 8.7 C 63 %
962 31-03-2020 17:10:17 8.7 C 63 %
963 31-03-2020 17:21:17 8.7 C 63 %
964 31-03-2020 17:31:17 8.8 C 63 %
965 31-03-2020 17:40:17 8.8 C 63 %
966 31-03-2020 17:51:17 8.8 C 62 %
967 31-03-2020 18:01:17 8.8 C 59 %
968 31-03-2020 18:11:17 8.8 C 56 %
969 31-03-2020 18:21:17 8.8 C 56 %
970 31-03-2020 18:31:17 8.8 C 56 %
971 31-03-2020 18:40:17 8.8 C 56 %
972 31-03-2020 18:51:17 8.8 C 57 %
973 31-03-2020 19:00:17 8.8 C 58 %
974 31-03-2020 19:10:17 8.9 C 58 %
975 31-03-2020 19:20:17 8.8 C 58 %
Sensor: Nr:Datum:Temp:Feuchte:
G-T/H 976 31-03-2020 19:31:17 8.9 C 59 %
977 31-03-2020 19:41:17 8.9 C 59 %
978 31-03-2020 19:50:17 8.9 C 59 %
979 31-03-2020 20:01:17 8.9 C 60 %
980 31-03-2020 20:11:17 8.9 C 60 %
981 31-03-2020 20:21:17 8.9 C 60 %
982 31-03-2020 20:31:17 8.9 C 61 %
983 31-03-2020 20:41:17 8.9 C 61 %
984 31-03-2020 20:51:17 8.9 C 61 %
985 31-03-2020 21:00:17 8.9 C 61 %
986 31-03-2020 21:10:18 8.9 C 61 %
987 31-03-2020 21:21:17 8.8 C 61 %
988 31-03-2020 21:31:17 8.9 C 61 %
989 31-03-2020 21:41:17 8.9 C 62 %
990 31-03-2020 21:51:17 8.9 C 62 %
991 31-03-2020 22:00:18 8.9 C 62 %
992 31-03-2020 22:10:18 8.8 C 62 %
993 31-03-2020 22:21:17 8.8 C 62 %
994 31-03-2020 22:31:17 8.8 C 62 %
995 31-03-2020 22:41:17 8.8 C 62 %
996 31-03-2020 22:50:18 8.8 C 62 %
997 31-03-2020 23:01:17 8.8 C 62 %
998 31-03-2020 23:11:17 8.8 C 62 %
999 31-03-2020 23:21:17 8.8 C 62 %
1000 31-03-2020 23:30:17 8.8 C 62 %
Sensor: Nr:Datum:Temp:Feuchte:
G-T/H 1001 31-03-2020 23:40:18 8.8 C 62 %
1002 31-03-2020 23:51:17 8.8 C 62 %

Legende:
   Min
   Max


Maximal/Minimal-Werte vom 25.03.2020 - 31.03.2020

Sensor Min Max Avg
Temp
(Aussen-T/F)
-4.5 °C
30-03-2020  07:40:18
24.3 °C
28-03-2020  14:40:17
5.79 °C
Feuchte
(Aussen-T/F)
20 %
25-03-2020  09:50:17
47 %
28-03-2020  06:50:17
28.5 %
Temp
(G-T/H)
7.4 °C
25-03-2020  10:00:18
12.4 °C
28-03-2020  15:10:18
8.98 °C
Feuchte
(G-T/H)
48 %
27-03-2020  17:50:18
67 %
27-03-2020  10:50:17
61.66 %

Die Daten stammen von einer Davis Vantage Pro 2 Wetter-Station und werden unter Linux mit der Software wview2wettercgi und aufbereitet. Alle Angaben erfolgen ohne Gewähr für ihre Vollständigkeit oder Richtigkeit.
Kontakt: Rainer Krienke krienke@uni-koblenz.de . Meine Webseiten an der Uni Koblenz oder privat.
Version: $Revision: 0.78 $